DW1157 Weather Reports


Display with metric or nautical units.
time (UTC)temp
F
wind
direction
speed
MPH
gust
MPH
rain 1hr
in
rain 24hr
in
rain mn
in
humidity
%
barometer
mb
20260506204937 98 67 0.0 0.0 0.00 0.00 0.00 60 999.7
20260506204842 98 41 0.0 0.0 0.00 0.00 0.00 62 999.7
20260506204732 98 41 0.0 0.0 0.00 0.00 0.00 61 999.7
20260506204630 98 32 0.0 0.0 0.00 0.00 0.00 62 999.8
20260506204554 98 287 0.0 0.0 0.00 0.00 0.00 61 999.8
20260506204425 98 287 0.0 0.0 0.00 0.00 0.00 62 999.8
20260506204327 98 287 0.0 0.0 0.00 0.00 0.00 61 999.8
20260506204227 98 287 0.0 0.0 0.00 0.00 0.00 61 999.8
20260506204148 98 287 0.0 0.0 0.00 0.00 0.00 62 999.8
20260506204024 98 287 0.0 0.0 0.00 0.00 0.00 62 999.8
20260506203944 98 287 0.0 0.0 0.00 0.00 0.00 61 999.8
20260506203837 98 288 0.0 0.0 0.00 0.00 0.00 61 999.8
20260506203730 98 306 0.0 0.0 0.00 0.00 0.00 61 999.8
20260506203632 98 306 0.0 0.0 0.00 0.00 0.00 62 999.8
20260506203528 97 306 0.0 0.0 0.00 0.00 0.00 62 999.8
20260506203434 97 306 0.0 0.0 0.00 0.00 0.00 63 999.8
20260506203326 97 292 0.0 0.0 0.00 0.00 0.00 63 999.8
20260506203247 97 292 0.0 0.0 0.00 0.00 0.00 63 999.8
20260506203117 97 292 0.0 0.0 0.00 0.00 0.00 63 999.9
20260506203044 97 289 0.0 0.0 0.00 0.00 0.00 63 999.9
20260506202942 97 282 0.0 0.0 0.00 0.00 0.00 63 999.9
20260506202834 97 288 0.0 0.0 0.00 0.00 0.00 62 999.9
20260506202737 97 287 0.0 0.0 0.00 0.00 0.00 62 999.9
20260506202630 97 293 0.0 0.0 0.00 0.00 0.00 62 999.9
20260506202531 97 293 0.0 0.0 0.00 0.00 0.00 62 999.9
20260506202423 97 293 0.0 0.0 0.00 0.00 0.00 62 999.9
20260506202346 97 293 0.0 0.0 0.00 0.00 0.00 62 999.9
20260506202220 97 290 0.0 0.0 0.00 0.00 0.00 62 999.9
20260506202144 97 290 0.0 0.0 0.00 0.00 0.00 62 999.9
20260506202040 97 297 0.0 0.0 0.00 0.00 0.00 63 999.9
20260506201946 97 297 0.0 0.0 0.00 0.00 0.00 63 999.9
20260506201818 97 297 0.0 0.0 0.00 0.00 0.00 62 999.9
20260506201735 97 294 0.0 0.0 0.00 0.00 0.00 61 999.9
20260506201641 97 294 0.0 0.0 0.00 0.00 0.00 62 999.9
20260506201552 97 292 0.0 0.0 0.00 0.00 0.00 61 1000.2
20260506201432 97 296 0.0 0.0 0.00 0.00 0.00 62 1000.2
20260506201324 97 304 0.0 0.0 0.00 0.00 0.00 62 1000.2
20260506201220 97 289 0.0 0.0 0.00 0.00 0.00 62 1000.2
20260506201123 97 289 0.0 0.0 0.00 0.00 0.00 62 1000.2
20260506201039 97 289 0.0 0.0 0.00 0.00 0.00 62 1000.2
20260506200940 97 289 0.0 0.0 0.00 0.00 0.00 63 1000.2
20260506200852 97 289 0.0 0.0 0.00 0.00 0.00 63 1000.2
20260506200733 97 296 0.0 0.0 0.00 0.00 0.00 62 1000.2
20260506200648 97 290 0.0 0.0 0.00 0.00 0.00 62 1000.2
20260506200528 97 290 0.0 0.0 0.00 0.00 0.00 62 1000.2
20260506200425 97 294 0.0 0.0 0.00 0.00 0.00 62 1000.2
20260506200346 97 42 0.0 0.0 0.00 0.00 0.00 62 1000.2
20260506200240 97 43 0.0 0.0 0.00 0.00 0.00 62 1000.2
20260506200144 97 49 0.0 0.0 0.00 0.00 0.00 61 1000.2
20260506200039 97 32 0.0 0.0 0.00 0.00 0.00 62 1000.3
20260506200001 97 281 0.0 0.0 0.00 0.00 0.00 61 1000.3
20260506195835 98 281 0.0 0.0 0.00 0.00 0.00 62 1000.3
20260506195726 97 281 0.0 0.0 0.00 0.00 0.00 61 1000.3
20260506195638 97 281 0.0 0.0 0.00 0.00 0.00 62 1000.3
20260506195527 98 281 0.0 0.0 0.00 0.00 0.00 62 1000.3
20260506195452 98 283 0.0 0.0 0.00 0.00 0.00 61 1000.3
20260506195355 98 283 0.0 0.0 0.00 0.00 0.00 61 1000.3
20260506195308 98 284 0.0 0.0 0.00 0.00 0.00 61 1000.3
20260506195229 98 284 0.0 0.0 0.00 0.00 0.00 62 1000.3
20260506195110 98 281 0.0 0.0 0.00 0.00 0.00 61 1000.3
20260506194939 97 281 0.0 0.0 0.00 0.00 0.00 62 1000.3
20260506194833 97 281 0.0 0.0 0.00 0.00 0.00 62 1000.3
20260506194800 97 281 0.0 0.0 0.00 0.00 0.00 62 1000.3
20260506194706 97 281 0.0 0.0 0.00 0.00 0.00 62 1000.3
20260506194537 97 294 0.0 0.0 0.00 0.00 0.00 62 1000.5
20260506194431 97 294 0.0 0.0 0.00 0.00 0.00 62 1000.5
20260506194336 97 294 0.0 0.0 0.00 0.00 0.00 62 1000.5
20260506194235 97 294 0.0 0.0 0.00 0.00 0.00 61 1000.5
20260506194140 97 292 0.0 0.0 0.00 0.00 0.00 61 1000.5
20260506194031 98 290 0.0 0.0 0.00 0.00 0.00 61 1000.5
20260506193955 98 286 0.0 0.0 0.00 0.00 0.00 60 1000.5
20260506193832 98 292 0.0 0.0 0.00 0.00 0.00 60 1000.5
20260506193724 98 306 0.0 0.0 0.00 0.00 0.00 61 1000.5
20260506193624 98 306 0.0 0.0 0.00 0.00 0.00 60 1000.5
20260506193539 98 306 0.0 0.0 0.00 0.00 0.00 61 1000.5
20260506193440 98 39 0.0 0.0 0.00 0.00 0.00 61 1000.5
20260506193332 98 279 0.0 0.0 0.00 0.00 0.00 62 1000.5
20260506193252 98 279 0.0 0.0 0.00 0.00 0.00 61 1000.5
20260506193128 98 279 0.0 0.0 0.00 0.00 0.00 61 1000.8
20260506193049 98 279 0.0 0.0 0.00 0.00 0.00 60 1000.8
20260506192920 98 279 0.0 0.0 0.00 0.00 0.00 61 1000.8
20260506192835 98 34 0.0 0.0 0.00 0.00 0.00 61 1000.8
20260506192735 98 34 0.0 0.0 0.00 0.00 0.00 61 1000.8
20260506192629 98 34 0.0 0.0 0.00 0.00 0.00 63 1000.8
20260506192523 97 34 0.0 0.0 0.00 0.00 0.00 62 1000.8
20260506192429 97 34 0.0 0.0 0.00 0.00 0.00 62 1000.8
20260506192325 97 34 0.0 0.0 0.00 0.00 0.00 62 1000.8
20260506192246 97 34 0.0 0.0 0.00 0.00 0.00 62 1000.8
20260506192137 97 34 0.0 0.0 0.00 0.00 0.00 62 1000.8
20260506192043 97 63 0.0 0.0 0.00 0.00 0.00 62 1000.8
20260506191935 97 294 0.0 0.0 0.00 0.00 0.00 63 1000.8
20260506191859 97 294 0.0 0.0 0.00 0.00 0.00 62 1000.8
20260506191740 97 294 0.0 0.0 0.00 0.00 0.00 62 1000.8
20260506191620 97 294 0.0 0.0 0.00 0.00 0.00 61 1000.9
20260506191531 97 296 0.0 0.0 0.00 0.00 0.00 62 1000.9
20260506191433 97 296 0.0 0.0 0.00 0.00 0.00 63 1000.9
20260506191325 97 296 0.0 0.0 0.00 0.00 0.00 64 1000.9
20260506191247 96 296 0.0 0.0 0.00 0.00 0.00 64 1000.9
20260506191138 96 296 0.0 0.0 0.00 0.00 0.00 65 1000.9
20260506191039 96 296 0.0 0.0 0.00 0.00 0.00 65 1000.9
20260506190934 96 290 0.0 0.0 0.00 0.00 0.00 64 1000.9
20260506190832 96 290 0.0 0.0 0.00 0.00 0.00 64 1000.9
20260506190734 96 306 0.0 0.0 0.00 0.00 0.00 64 1000.9
20260506190649 96 284 0.0 0.0 0.00 0.00 0.00 64 1000.9
20260506190529 95 284 0.0 0.0 0.00 0.00 0.00 65 1000.9
20260506190426 95 54 0.0 0.0 0.00 0.00 0.00 64 1000.9
20260506190347 95 54 0.0 0.0 0.00 0.00 0.00 65 1000.9
20260506190222 95 34 0.0 0.0 0.00 0.00 0.00 65 1000.9
20260506190138 96 29 0.0 0.0 0.00 0.00 0.00 64 1000.9
20260506190043 96 30 0.0 0.0 0.00 0.00 0.00 65 1001.0
20260506185938 96 26 0.0 0.0 0.00 0.00 0.00 64 1001.0
20260506185834 96 31 0.0 0.0 0.00 0.00 0.00 66 1001.0
20260506185740 95 31 0.0 0.0 0.00 0.00 0.00 66 1001.0
20260506185632 95 31 0.0 0.0 0.00 0.00 0.00 65 1001.0
20260506185525 96 41 0.0 0.0 0.00 0.00 0.00 65 1001.0
20260506185430 96 41 0.0 0.0 0.00 0.00 0.00 65 1001.0
20260506185347 96 125 0.0 0.0 0.00 0.00 0.00 64 1001.0
20260506185227 96 167 0.0 0.0 0.00 0.00 0.00 63 1001.0
20260506185136 96 48 0.0 0.0 0.00 0.00 0.00 64 1001.0
20260506185040 96 57 0.0 0.0 0.00 0.00 0.00 64 1001.0
20260506184936 97 46 0.0 0.0 0.00 0.00 0.00 65 1001.0
20260506184829 97 32 0.0 0.0 0.00 0.00 0.00 65 1001.0
20260506184732 96 340 0.0 0.0 0.00 0.00 0.00 65 1001.0
20260506184631 96 234 0.0 0.0 0.00 0.00 0.00 65 1001.2
20260506184527 96 234 0.0 0.0 0.00 0.00 0.00 65 1001.2
20260506184428 96 234 0.0 0.0 0.00 0.00 0.00 66 1001.2
20260506184341 96 234 0.0 0.0 0.00 0.00 0.00 65 1001.2
20260506184243 95 214 0.0 0.0 0.00 0.00 0.00 66 1001.2
20260506184136 95 229 0.0 0.0 0.00 0.00 0.00 66 1001.2
20260506184029 95 229 0.0 0.0 0.00 0.00 0.00 65 1001.2
20260506183933 95 221 0.0 0.0 0.00 0.00 0.00 65 1001.2
20260506183855 95 221 0.0 0.0 0.00 0.00 0.00 66 1001.2
20260506183728 95 221 0.0 0.0 0.00 0.00 0.00 65 1001.2
20260506183648 95 220 0.0 0.0 0.00 0.00 0.00 65 1001.2
20260506183543 95 221 0.0 0.0 0.00 0.00 0.00 65 1001.2
20260506183446 95 221 0.0 0.0 0.00 0.00 0.00 65 1001.2
20260506183402 95 221 0.0 0.0 0.00 0.00 0.00 65 1001.2
20260506183243 95 221 0.0 0.0 0.00 0.00 0.00 64 1001.2
20260506183156 96 225 0.0 0.0 0.00 0.00 0.00 64 1001.2
20260506183040 96 162 0.0 0.0 0.00 0.00 0.00 65 1001.4
20260506182930 96 200 0.0 0.0 0.00 0.00 0.00 64 1001.4
20260506182834 96 200 0.0 0.0 0.00 0.00 0.00 65 1001.4
20260506182728 96 98 0.0 0.0 0.00 0.00 0.00 65 1001.4
20260506182648 96 128 0.0 0.0 0.00 0.00 0.00 65 1001.4
20260506182521 96 175 0.0 0.0 0.00 0.00 0.00 65 1001.4
20260506182433 96 126 0.0 0.0 0.00 0.00 0.00 65 1001.4
20260506182339 96 148 0.0 0.0 0.00 0.00 0.00 65 1001.4
20260506182252 96 76 0.0 0.0 0.00 0.00 0.00 64 1001.4
20260506182132 96 115 0.0 0.0 0.00 0.00 0.00 64 1001.4
20260506182027 96 215 1.0 0.0 0.00 0.00 0.00 64 1001.4
20260506181919 96 215 1.0 0.0 0.00 0.00 0.00 64 1001.4
20260506181843 96 225 1.0 0.0 0.00 0.00 0.00 64 1001.4
20260506181808 96 186 0.0 0.0 0.00 0.00 0.00 64 1001.4
20260506181656 96 111 0.0 0.0 0.00 0.00 0.00 64 1001.4
20260506181525 96 218 0.0 0.0 0.00 0.00 0.00 64 1001.4
20260506181436 96 218 0.0 0.0 0.00 0.00 0.00 64 1001.4
20260506181400 96 219 0.0 0.0 0.00 0.00 0.00 64 1001.4
20260506181245 96 213 0.0 0.0 0.00 0.00 0.00 65 1001.4
20260506181137 95 207 0.0 0.0 0.00 0.00 0.00 66 1001.4
20260506181031 95 181 0.0 0.0 0.00 0.00 0.00 66 1001.4
20260506180936 95 221 0.0 0.0 0.00 0.00 0.00 66 1001.4
20260506180828 95 221 0.0 0.0 0.00 0.00 0.00 66 1001.4
20260506180728 95 221 0.0 0.0 0.00 0.00 0.00 66 1001.4
20260506180652 95 98 0.0 0.0 0.00 0.00 0.00 65 1001.4
20260506180523 95 28 0.0 0.0 0.00 0.00 0.00 66 1001.4
20260506180423 95 127 0.0 0.0 0.00 0.00 0.00 66 1001.4
20260506180338 95 48 0.0 0.0 0.00 0.00 0.00 64 1001.4
20260506180238 96 53 0.0 0.0 0.00 0.00 0.00 64 1001.4
20260506180137 96 72 0.0 0.0 0.00 0.00 0.00 65 1001.4
20260506180100 96 88 0.0 0.0 0.00 0.00 0.00 64 1001.5
20260506175939 96 180 0.0 0.0 0.00 0.00 0.00 65 1001.5
20260506175829 96 180 1.0 0.0 0.00 0.00 0.00 66 1001.5
20260506175729 96 223 1.0 0.0 0.00 0.00 0.00 65 1001.5
20260506175622 96 216 1.0 0.0 0.00 0.00 0.00 64 1001.5
20260506175547 96 207 1.0 0.0 0.00 0.00 0.00 65 1001.5
20260506175503 96 182 1.0 0.0 0.00 0.00 0.00 65 1001.5
20260506175342 96 164 1.0 0.0 0.00 0.00 0.00 66 1001.5
20260506175233 96 222 1.0 0.0 0.00 0.00 0.00 66 1001.5
20260506175129 95 234 1.0 0.0 0.00 0.00 0.00 66 1001.5
20260506175030 95 179 0.0 0.0 0.00 0.00 0.00 66 1001.5
20260506174921 95 236 0.0 0.0 0.00 0.00 0.00 67 1001.5
20260506174828 95 233 0.0 0.0 0.00 0.00 0.00 66 1001.5
20260506174746 95 233 0.0 0.0 0.00 0.00 0.00 65 1001.5
20260506174708 95 203 0.0 0.0 0.00 0.00 0.00 65 1001.5
20260506174607 95 278 0.0 0.0 0.00 0.00 0.00 66 1001.7
20260506174422 95 152 0.0 0.0 0.00 0.00 0.00 68 1001.7
20260506174338 95 214 0.0 0.0 0.00 0.00 0.00 67 1001.7
20260506174224 95 203 0.0 0.0 0.00 0.00 0.00 67 1001.7
20260506174146 95 216 0.0 0.0 0.00 0.00 0.00 68 1001.7
20260506174056 95 220 0.0 0.0 0.00 0.00 0.00 66 1001.7
20260506173936 95 232 0.0 0.0 0.00 0.00 0.00 66 1001.7
20260506173826 95 111 0.0 0.0 0.00 0.00 0.00 66 1001.7
20260506173747 95 111 0.0 0.0 0.00 0.00 0.00 66 1001.7
20260506173620 95 92 0.0 0.0 0.00 0.00 0.00 68 1001.7
20260506173544 94 224 0.0 0.0 0.00 0.00 0.00 68 1001.7
20260506173439 94 224 0.0 0.0 0.00 0.00 0.00 68 1001.7
20260506173346 94 224 0.0 0.0 0.00 0.00 0.00 66 1001.7
20260506173222 94 219 0.0 0.0 0.00 0.00 0.00 69 1001.7
20260506173134 94 199 0.0 0.0 0.00 0.00 0.00 69 1001.7
20260506173035 94 220 0.0 0.0 0.00 0.00 0.00 68 1001.8
20260506172927 94 257 0.0 0.0 0.00 0.00 0.00 68 1001.8
20260506172819 94 140 0.0 0.0 0.00 0.00 0.00 68 1001.8
20260506172750 93 140 0.0 0.0 0.00 0.00 0.00 68 1001.8
20260506172624 93 196 0.0 0.0 0.00 0.00 0.00 69 1001.8
20260506172525 93 171 0.0 0.0 0.00 0.00 0.00 70 1001.8
20260506172441 93 177 0.0 0.0 0.00 0.00 0.00 69 1001.8
20260506172340 93 176 0.0 0.0 0.00 0.00 0.00 69 1001.8
20260506172236 93 284 0.0 0.0 0.00 0.00 0.00 70 1001.8
20260506172129 93 284 0.0 0.0 0.00 0.00 0.00 68 1001.8
20260506172034 93 288 0.0 0.0 0.00 0.00 0.00 68 1001.8
20260506171926 93 288 0.0 0.0 0.00 0.00 0.00 68 1001.8
20260506171823 93 270 0.0 0.0 0.00 0.00 0.00 69 1001.8
20260506171725 93 226 0.0 0.0 0.00 0.00 0.00 68 1001.8
20260506171620 93 226 0.0 0.0 0.00 0.00 0.00 68 1001.8
20260506171547 93 226 0.0 0.0 0.00 0.00 0.00 68 1001.8
20260506171458 93 225 0.0 0.0 0.00 0.00 0.00 68 1001.8
20260506171338 93 226 0.0 0.0 0.00 0.00 0.00 68 1001.8
20260506171237 93 226 0.0 0.0 0.00 0.00 0.00 67 1001.8
20260506171129 94 226 0.0 0.0 0.00 0.00 0.00 67 1001.8
20260506171028 94 223 0.0 0.0 0.00 0.00 0.00 67 1001.8
20260506170924 94 213 0.0 0.0 0.00 0.00 0.00 67 1001.8
20260506170825 94 218 0.0 0.0 0.00 0.00 0.00 69 1001.8
20260506170736 93 218 0.0 0.0 0.00 0.00 0.00 70 1001.8
20260506170636 93 144 0.0 0.0 0.00 0.00 0.00 69 1001.8
20260506170532 93 144 0.0 0.0 0.00 0.00 0.00 69 1001.8
20260506170436 93 144 0.0 0.0 0.00 0.00 0.00 70 1001.8
20260506170328 93 198 1.0 0.0 0.00 0.00 0.00 68 1001.8
20260506170224 93 198 1.0 0.0 0.00 0.00 0.00 68 1001.8
20260506170128 93 225 1.0 0.0 0.00 0.00 0.00 69 1001.9
20260506170045 93 168 1.0 0.0 0.00 0.00 0.00 69 1001.9
20260506165924 93 210 1.0 0.0 0.00 0.00 0.00 69 1001.9
20260506165847 93 221 1.0 0.0 0.00 0.00 0.00 68 1001.9
20260506165758 93 221 1.0 0.0 0.00 0.00 0.00 68 1001.9
20260506165642 93 179 1.0 0.0 0.00 0.00 0.00 69 1001.9
20260506165535 93 235 1.0 0.0 0.00 0.00 0.00 68 1001.9
20260506165427 93 229 1.0 0.0 0.00 0.00 0.00 68 1001.9
20260506165335 93 231 1.0 0.0 0.00 0.00 0.00 67 1001.9
20260506165226 93 245 1.0 0.0 0.00 0.00 0.00 68 1001.9
20260506165148 93 228 0.0 0.0 0.00 0.00 0.00 68 1001.9
20260506165042 93 212 0.0 0.0 0.00 0.00 0.00 69 1001.9
20260506164947 93 178 1.0 0.0 0.00 0.00 0.00 69 1001.9
20260506164818 93 223 0.0 0.0 0.00 0.00 0.00 69 1001.9
20260506164737 93 221 0.0 0.0 0.00 0.00 0.00 70 1001.9
20260506164700 93 223 0.0 0.0 0.00 0.00 0.00 69 1001.9
20260506164530 93 223 0.0 0.0 0.00 0.00 0.00 69 1001.8
20260506164457 93 209 0.0 0.0 0.00 0.00 0.00 70 1001.8
20260506164336 93 213 0.0 0.0 0.00 0.00 0.00 69 1001.8
20260506164228 93 232 1.0 0.0 0.00 0.00 0.00 69 1001.8
20260506164123 93 211 1.0 0.0 0.00 0.00 0.00 69 1001.8
20260506164031 93 211 1.0 0.0 0.00 0.00 0.00 70 1001.8
20260506163942 93 211 1.0 0.0 0.00 0.00 0.00 70 1001.8
20260506163828 92 168 1.0 0.0 0.00 0.00 0.00 70 1001.8
20260506163740 92 191 1.0 0.0 0.00 0.00 0.00 70 1001.8
20260506163640 92 213 1.0 0.0 0.00 0.00 0.00 71 1001.8
20260506163533 92 219 1.0 0.0 0.00 0.00 0.00 70 1001.8
20260506163434 92 195 1.0 0.0 0.00 0.00 0.00 69 1001.8
20260506163328 92 190 0.0 0.0 0.00 0.00 0.00 70 1001.8
20260506163252 92 209 0.0 0.0 0.00 0.00 0.00 71 1001.8
20260506163123 92 98 0.0 0.0 0.00 0.00 0.00 72 1001.9
20260506163034 91 209 0.0 0.0 0.00 0.00 0.00 72 1001.9
20260506162937 91 200 0.0 0.0 0.00 0.00 0.00 73 1001.9
20260506162828 91 196 1.0 0.0 0.00 0.00 0.00 72 1001.9
20260506162748 91 196 1.0 0.0 0.00 0.00 0.00 72 1001.9
20260506162622 90 166 0.0 0.0 0.00 0.00 0.00 74 1001.9
20260506162547 90 217 0.0 0.0 0.00 0.00 0.00 74 1001.8
20260506162440 90 187 1.0 0.0 0.00 0.00 0.00 73 1001.8
20260506162335 90 186 1.0 0.0 0.00 0.00 0.00 73 1001.8
20260506162229 90 202 1.0 0.0 0.00 0.00 0.00 74 1001.8
20260506162136 90 227 1.0 0.0 0.00 0.00 0.00 73 1001.8
20260506162027 90 214 1.0 0.0 0.00 0.00 0.00 72 1001.8
20260506161927 90 223 1.0 0.0 0.00 0.00 0.00 72 1001.8
20260506161855 90 211 1.0 0.0 0.00 0.00 0.00 73 1001.8
20260506161728 90 221 2.0 0.0 0.00 0.00 0.00 72 1001.8
20260506161650 90 190 2.0 0.0 0.00 0.00 0.00 72 1001.9
20260506161541 90 221 2.0 0.0 0.00 0.00 0.00 72 1001.8
20260506161445 90 225 2.0 0.0 0.00 0.00 0.00 72 1001.8
20260506161337 90 186 2.0 0.0 0.00 0.00 0.00 72 1001.8
20260506161258 90 200 2.0 0.0 0.00 0.00 0.00 72 1001.8
20260506161130 90 180 1.0 0.0 0.00 0.00 0.00 72 1001.8
20260506161027 90 179 1.0 0.0 0.00 0.00 0.00 73 1001.8
20260506160929 90 166 1.0 0.0 0.00 0.00 0.00 73 1001.8
20260506160824 90 140 1.0 0.0 0.00 0.00 0.00 73 1001.8
20260506160718 90 202 1.0 0.0 0.00 0.00 0.00 74 1001.8
20260506160626 89 225 1.0 0.0 0.00 0.00 0.00 74 1001.8
20260506160538 89 215 1.0 0.0 0.00 0.00 0.00 73 1001.8
20260506160440 89 215 1.0 0.0 0.00 0.00 0.00 74 1001.8
20260506160335 89 198 1.0 0.0 0.00 0.00 0.00 74 1001.8
20260506160226 89 198 1.0 0.0 0.00 0.00 0.00 74 1001.8
20260506160130 89 193 1.0 0.0 0.00 0.00 0.00 74 1001.8
20260506160024 89 207 0.0 0.0 0.00 0.00 0.00 74 1001.8
20260506155948 89 209 0.0 0.0 0.00 0.00 0.00 73 1001.8
20260506155820 89 229 1.0 0.0 0.00 0.00 0.00 74 1001.8
20260506155731 89 240 1.0 0.0 0.00 0.00 0.00 74 1001.8
20260506155637 89 166 0.0 0.0 0.00 0.00 0.00 74 1001.8
20260506155532 89 204 0.0 0.0 0.00 0.00 0.00 75 1001.8
20260506155424 89 233 0.0 0.0 0.00 0.00 0.00 74 1001.8
20260506155324 89 200 0.0 0.0 0.00 0.00 0.00 74 1001.8
20260506155216 89 207 0.0 0.0 0.00 0.00 0.00 74 1001.8
20260506155144 89 167 0.0 0.0 0.00 0.00 0.00 75 1001.8
20260506155033 89 209 0.0 0.0 0.00 0.00 0.00 75 1001.8
20260506154936 89 223 1.0 0.0 0.00 0.00 0.00 74 1001.8
20260506154836 89 207 0.0 0.0 0.00 0.00 0.00 75 1001.8
20260506154755 89 212 0.0 0.0 0.00 0.00 0.00 76 1001.8
20260506154625 88 212 0.0 0.0 0.00 0.00 0.00 75 1001.9
20260506154546 88 204 0.0 0.0 0.00 0.00 0.00 75 1001.9
20260506154458 88 96 0.0 0.0 0.00 0.00 0.00 75 1001.9
20260506154338 88 176 0.0 0.0 0.00 0.00 0.00 75 1001.9
20260506154233 88 176 0.0 0.0 0.00 0.00 0.00 75 1001.9
20260506154134 88 217 0.0 0.0 0.00 0.00 0.00 76 1001.9
20260506154029 88 213 0.0 0.0 0.00 0.00 0.00 76 1001.9
20260506153949 88 284 0.0 0.0 0.00 0.00 0.00 76 1001.9
20260506153822 88 180 0.0 0.0 0.00 0.00 0.00 77 1001.9
20260506153745 88 205 0.0 0.0 0.00 0.00 0.00 77 1001.9
20260506153639 87 150 0.0 0.0 0.00 0.00 0.00 77 1001.9
20260506153532 87 207 0.0 0.0 0.00 0.00 0.00 76 1001.9
20260506153426 87 196 0.0 0.0 0.00 0.00 0.00 76 1001.9
20260506153337 87 227 0.0 0.0 0.00 0.00 0.00 77 1001.9
20260506153228 87 167 0.0 0.0 0.00 0.00 0.00 78 1001.9
20260506153129 87 175 1.0 0.0 0.00 0.00 0.00 78 1001.9
20260506153023 87 153 1.0 0.0 0.00 0.00 0.00 77 1001.9
20260506152945 87 148 1.0 0.0 0.00 0.00 0.00 77 1001.9
20260506152837 87 197 0.0 0.0 0.00 0.00 0.00 78 1001.9
20260506152731 87 190 1.0 0.0 0.00 0.00 0.00 78 1001.9
20260506152634 86 203 1.0 0.0 0.00 0.00 0.00 78 1001.9
20260506152528 86 188 1.0 0.0 0.00 0.00 0.00 79 1001.9
20260506152433 86 225 1.0 0.0 0.00 0.00 0.00 79 1001.9
20260506152401 86 226 1.0 0.0 0.00 0.00 0.00 79 1001.9
20260506152230 86 192 1.0 0.0 0.00 0.00 0.00 79 1001.9
20260506152150 86 169 1.0 0.0 0.00 0.00 0.00 79 1001.9
20260506152040 86 169 1.0 0.0 0.00 0.00 0.00 79 1001.9
20260506151942 86 160 1.0 0.0 0.00 0.00 0.00 80 1001.9
20260506151834 86 208 1.0 0.0 0.00 0.00 0.00 79 1001.9
20260506151728 86 208 1.0 0.0 0.00 0.00 0.00 79 1001.9
20260506151631 86 215 1.0 0.0 0.00 0.00 0.00 80 1001.9
20260506151543 86 209 1.0 0.0 0.00 0.00 0.00 80 1001.9
20260506151430 86 173 1.0 0.0 0.00 0.00 0.00 80 1001.9
20260506151321 85 230 1.0 0.0 0.00 0.00 0.00 80 1001.9
20260506151245 85 179 1.0 0.0 0.00 0.00 0.00 80 1001.9
20260506151200 85 208 1.0 0.0 0.00 0.00 0.00 80 1001.9
20260506151040 85 211 1.0 0.0 0.00 0.00 0.00 80 1001.9
20260506150938 85 213 1.0 0.0 0.00 0.00 0.00 81 1001.9
20260506150906 85 213 1.0 0.0 0.00 0.00 0.00 81 1001.9
20260506150808 85 216 1.0 0.0 0.00 0.00 0.00 81 1001.9
20260506150622 84 211 1.0 0.0 0.00 0.00 0.00 82 1001.9
20260506150535 84 217 1.0 0.0 0.00 0.00 0.00 82 1001.9
20260506150436 84 155 1.0 0.0 0.00 0.00 0.00 82 1001.9
20260506150349 84 163 1.0 0.0 0.00 0.00 0.00 83 1001.9
20260506150232 83 165 1.0 0.0 0.00 0.00 0.00 83 1001.9
20260506150127 83 204 1.0 0.0 0.00 0.00 0.00 83 1002.1
20260506150022 83 185 1.0 0.0 0.00 0.00 0.00 84 1002.1
20260506145945 83 202 1.0 0.0 0.00 0.00 0.00 84 1002.1
20260506145909 83 213 1.0 0.0 0.00 0.00 0.00 84 1002.1
20260506145742 83 211 1.0 0.0 0.00 0.00 0.00 84 1002.1
20260506145703 82 205 1.0 0.0 0.00 0.00 0.00 84 1002.1
20260506145534 82 165 1.0 0.0 0.00 0.00 0.00 84 1002.1
20260506145428 82 186 1.0 0.0 0.00 0.00 0.00 85 1002.1
20260506145332 82 212 1.0 0.0 0.00 0.00 0.00 85 1002.1
20260506145223 82 199 0.0 0.0 0.00 0.00 0.00 85 1002.1
20260506145143 82 215 0.0 0.0 0.00 0.00 0.00 85 1002.1
20260506145054 82 204 0.0 0.0 0.00 0.00 0.00 85 1002.1
20260506144936 82 202 0.0 0.0 0.00 0.00 0.00 85 1002.1
20260506144827 82 101 1.0 0.0 0.00 0.00 0.00 85 1002.1
20260506144716 82 205 1.0 0.0 0.00 0.00 0.00 86 1002.1
20260506144644 82 197 1.0 0.0 0.00 0.00 0.00 86 1002.3
20260506144544 81 206 1.0 0.0 0.00 0.00 0.00 86 1002.3
20260506144437 81 205 1.0 0.0 0.00 0.00 0.00 86 1002.3
20260506144342 81 170 1.0 0.0 0.00 0.00 0.00 86 1002.3
20260506144255 81 203 1.0 0.0 0.00 0.00 0.00 86 1002.3
20260506144136 81 221 1.0 0.0 0.00 0.00 0.00 86 1002.3
20260506144032 81 190 1.0 0.0 0.00 0.00 0.00 85 1002.3
20260506143925 81 194 1.0 0.0 0.00 0.00 0.00 86 1002.3
20260506143845 81 167 1.0 0.0 0.00 0.00 0.00 86 1002.3
20260506143747 81 226 1.0 0.0 0.00 0.00 0.00 86 1002.3
20260506143627 81 197 0.0 0.0 0.00 0.00 0.00 86 1002.3
20260506143517 81 219 0.0 0.0 0.00 0.00 0.00 86 1002.3
20260506143425 81 213 0.0 0.0 0.00 0.00 0.00 86 1002.3
20260506143342 81 203 0.0 0.0 0.00 0.00 0.00 86 1002.3
20260506143308 81 162 0.0 0.0 0.00 0.00 0.00 86 1002.3
20260506143122 81 194 0.0 0.0 0.00 0.00 0.00 86 1002.2
20260506143045 81 205 0.0 0.0 0.00 0.00 0.00 86 1002.2
20260506142923 81 217 0.0 0.0 0.00 0.00 0.00 86 1002.2
20260506142847 81 205 0.0 0.0 0.00 0.00 0.00 86 1002.2
20260506142737 81 166 0.0 0.0 0.00 0.00 0.00 86 1002.2
20260506142641 81 224 0.0 0.0 0.00 0.00 0.00 86 1002.2
20260506142520 81 224 0.0 0.0 0.00 0.00 0.00 86 1002.2
20260506142431 81 224 0.0 0.0 0.00 0.00 0.00 86 1002.2
20260506142335 81 224 0.0 0.0 0.00 0.00 0.00 86 1002.2
20260506142235 81 200 0.0 0.0 0.00 0.00 0.00 86 1002.2
20260506142200 81 200 0.0 0.0 0.00 0.00 0.00 86 1002.2
20260506142030 81 200 0.0 0.0 0.00 0.00 0.00 86 1002.2
20260506141926 81 204 0.0 0.0 0.00 0.00 0.00 86 1002.2
20260506141847 81 184 0.0 0.0 0.00 0.00 0.00 86 1002.2
20260506141748 81 180 0.0 0.0 0.00 0.00 0.00 86 1002.2
20260506141621 81 157 0.0 0.0 0.00 0.00 0.00 86 1002.3
20260506141534 81 194 0.0 0.0 0.00 0.00 0.00 86 1002.3
20260506141438 81 202 0.0 0.0 0.00 0.00 0.00 86 1002.3
20260506141335 81 202 0.0 0.0 0.00 0.00 0.00 86 1002.3
20260506141227 81 240 0.0 0.0 0.00 0.00 0.00 86 1002.3
20260506141131 81 239 0.0 0.0 0.00 0.00 0.00 87 1002.3
20260506141023 81 154 1.0 0.0 0.00 0.00 0.00 87 1002.3
20260506140946 81 225 1.0 0.0 0.00 0.00 0.00 87 1002.3
20260506140838 81 225 1.0 0.0 0.00 0.00 0.00 87 1002.3
20260506140739 81 208 1.0 0.0 0.00 0.00 0.00 87 1002.3
20260506140620 81 208 1.0 0.0 0.00 0.00 0.00 87 1002.3
20260506140533 81 208 1.0 0.0 0.00 0.00 0.00 87 1002.3
20260506140433 81 208 1.0 0.0 0.00 0.00 0.00 87 1002.3
20260506140328 81 205 1.0 0.0 0.00 0.00 0.00 87 1002.3
20260506140220 81 162 1.0 0.0 0.00 0.00 0.00 87 1002.3
20260506140144 81 209 1.0 0.0 0.00 0.00 0.00 87 1002.3
20260506140045 81 153 1.0 0.0 0.00 0.00 0.00 87 1002.1
20260506135926 81 171 1.0 0.0 0.00 0.00 0.00 87 1002.1
20260506135848 81 171 1.0 0.0 0.00 0.00 0.00 87 1002.1
20260506135719 81 253 0.0 0.0 0.00 0.00 0.00 87 1002.1
20260506135629 81 188 0.0 0.0 0.00 0.00 0.00 87 1002.1
20260506135554 81 196 0.0 0.0 0.00 0.00 0.00 87 1002.1
20260506135424 81 194 0.0 0.0 0.00 0.00 0.00 87 1002.1
20260506135348 81 190 0.0 0.0 0.00 0.00 0.00 87 1002.1
20260506135309 81 217 0.0 0.0 0.00 0.00 0.00 87 1002.1
20260506135159 81 217 0.0 0.0 0.00 0.00 0.00 87 1002.1
20260506135046 81 209 0.0 0.0 0.00 0.00 0.00 87 1002.1
20260506134937 81 180 0.0 0.0 0.00 0.00 0.00 87 1002.1
20260506134857 81 177 0.0 0.0 0.00 0.00 0.00 87 1002.1
20260506134726 81 175 1.0 0.0 0.00 0.00 0.00 87 1002.1
20260506134646 81 267 1.0 0.0 0.00 0.00 0.00 87 1002.1
20260506134600 81 276 0.0 0.0 0.00 0.00 0.00 87 1002.0
20260506134442 81 165 0.0 0.0 0.00 0.00 0.00 87 1002.0
20260506134401 81 196 0.0 0.0 0.00 0.00 0.00 87 1002.0
20260506134239 81 194 0.0 0.0 0.00 0.00 0.00 87 1002.0
20260506134142 81 176 0.0 0.0 0.00 0.00 0.00 87 1002.0
20260506134043 81 121 0.0 0.0 0.00 0.00 0.00 87 1002.0
20260506133934 81 144 0.0 0.0 0.00 0.00 0.00 87 1002.0
20260506133825 81 203 0.0 0.0 0.00 0.00 0.00 87 1001.9
20260506133725 80 238 0.0 0.0 0.00 0.00 0.00 87 1001.9
20260506133643 80 198 0.0 0.0 0.00 0.00 0.00 88 1001.9
20260506133546 81 155 0.0 0.0 0.00 0.00 0.00 88 1002.0
20260506133508 80 221 0.0 0.0 0.00 0.00 0.00 88 1001.9
20260506133326 80 211 0.0 0.0 0.00 0.00 0.00 88 1001.9
20260506133225 80 209 0.0 0.0 0.00 0.00 0.00 88 1001.9
20260506133146 80 165 0.0 0.0 0.00 0.00 0.00 88 1002.0
20260506133050 80 212 0.0 0.0 0.00 0.00 0.00 88 1002.0
20260506132940 80 202 0.0 0.0 0.00 0.00 0.00 88 1002.0
20260506132836 80 192 0.0 0.0 0.00 0.00 0.00 88 1002.0
20260506132726 80 212 0.0 0.0 0.00 0.00 0.00 88 1002.0
20260506132633 80 212 0.0 0.0 0.00 0.00 0.00 88 1002.0
20260506132531 80 212 0.0 0.0 0.00 0.00 0.00 88 1002.0
20260506132422 80 212 0.0 0.0 0.00 0.00 0.00 88 1002.0
20260506132347 80 212 0.0 0.0 0.00 0.00 0.00 88 1002.0
20260506132220 80 212 0.0 0.0 0.00 0.00 0.00 88 1002.0
20260506132123 80 212 0.0 0.0 0.00 0.00 0.00 88 1002.0
20260506132024 80 194 0.0 0.0 0.00 0.00 0.00 88 1002.0
20260506131935 80 194 0.0 0.0 0.00 0.00 0.00 88 1002.0
20260506131840 80 194 0.0 0.0 0.00 0.00 0.00 88 1002.0
20260506131732 80 194 0.0 0.0 0.00 0.00 0.00 88 1002.0
20260506131623 80 194 0.0 0.0 0.00 0.00 0.00 88 1001.9
20260506131528 80 205 0.0 0.0 0.00 0.00 0.00 88 1001.9
20260506131421 80 157 0.0 0.0 0.00 0.00 0.00 88 1001.9
20260506131344 80 221 0.0 0.0 0.00 0.00 0.00 88 1001.9
20260506131240 80 199 0.0 0.0 0.00 0.00 0.00 88 1001.9
20260506131118 80 217 0.0 0.0 0.00 0.00 0.00 88 1001.9
20260506131046 80 214 0.0 0.0 0.00 0.00 0.00 88 1001.9
20260506131008 80 253 0.0 0.0 0.00 0.00 0.00 88 1001.9
20260506130902 80 210 0.0 0.0 0.00 0.00 0.00 88 1001.9
20260506130743 80 211 0.0 0.0 0.00 0.00 0.00 88 1001.9
20260506130657 80 211 0.0 0.0 0.00 0.00 0.00 88 1001.9
20260506130537 80 211 0.0 0.0 0.00 0.00 0.00 88 1001.9
20260506130429 80 200 0.0 0.0 0.00 0.00 0.00 88 1001.9
20260506130327 80 200 0.0 0.0 0.00 0.00 0.00 88 1001.9
20260506130231 80 207 0.0 0.0 0.00 0.00 0.00 88 1001.9
20260506130122 80 207 0.0 0.0 0.00 0.00 0.00 88 1001.9
20260506130046 80 207 0.0 0.0 0.00 0.00 0.00 88 1001.9
20260506125938 80 207 0.0 0.0 0.00 0.00 0.00 88 1001.9
20260506125833 80 207 0.0 0.0 0.00 0.00 0.00 88 1001.9
20260506125735 80 140 0.0 0.0 0.00 0.00 0.00 88 1001.9
20260506125628 80 140 0.0 0.0 0.00 0.00 0.00 88 1001.9
20260506125525 80 140 0.0 0.0 0.00 0.00 0.00 88 1001.9
20260506125427 80 140 0.0 0.0 0.00 0.00 0.00 88 1001.9
20260506125322 80 140 0.0 0.0 0.00 0.00 0.00 88 1001.9
20260506125246 80 214 0.0 0.0 0.00 0.00 0.00 88 1001.9
20260506125202 80 214 0.0 0.0 0.00 0.00 0.00 88 1001.9
20260506125043 80 214 0.0 0.0 0.00 0.00 0.00 88 1001.9
20260506124917 80 219 0.0 0.0 0.00 0.00 0.00 88 1001.9
20260506124850 80 219 0.0 0.0 0.00 0.00 0.00 88 1001.9
20260506124804 80 219 0.0 0.0 0.00 0.00 0.00 88 1001.9
20260506124643 80 219 0.0 0.0 0.00 0.00 0.00 88 1001.5
20260506124534 80 219 0.0 0.0 0.00 0.00 0.00 88 1001.5
20260506124438 80 219 0.0 0.0 0.00 0.00 0.00 88 1001.5
20260506124334 80 219 0.0 0.0 0.00 0.00 0.00 88 1001.5
20260506124226 80 219 0.0 0.0 0.00 0.00 0.00 88 1001.5
20260506124128 80 219 0.0 0.0 0.00 0.00 0.00 88 1001.5
20260506124027 80 219 0.0 0.0 0.00 0.00 0.00 88 1001.5
20260506123948 80 219 0.0 0.0 0.00 0.00 0.00 88 1001.5
20260506123823 80 219 0.0 0.0 0.00 0.00 0.00 88 1001.5
20260506123741 80 219 0.0 0.0 0.00 0.00 0.00 88 1001.5
20260506123703 80 219 0.0 0.0 0.00 0.00 0.00 88 1001.5
20260506123604 80 219 0.0 0.0 0.00 0.00 0.00 88 1001.5
20260506123436 80 219 0.0 0.0 0.00 0.00 0.00 88 1001.5
20260506123327 80 172 0.0 0.0 0.00 0.00 0.00 88 1001.5
20260506123234 80 190 0.0 0.0 0.00 0.00 0.00 88 1001.5
20260506123140 80 203 0.0 0.0 0.00 0.00 0.00 88 1001.5
20260506123041 80 200 0.0 0.0 0.00 0.00 0.00 88 1001.3
20260506122920 80 165 0.0 0.0 0.00 0.00 0.00 88 1001.3
20260506122835 80 182 0.0 0.0 0.00 0.00 0.00 88 1001.3
20260506122801 80 182 0.0 0.0 0.00 0.00 0.00 88 1001.3
20260506122631 80 182 0.0 0.0 0.00 0.00 0.00 88 1001.3
20260506122535 80 182 0.0 0.0 0.00 0.00 0.00 88 1001.3
20260506122430 80 151 0.0 0.0 0.00 0.00 0.00 88 1001.3
20260506122323 80 151 0.0 0.0 0.00 0.00 0.00 88 1001.3
20260506122224 80 169 0.0 0.0 0.00 0.00 0.00 88 1001.3
20260506122140 80 169 0.0 0.0 0.00 0.00 0.00 88 1001.3
20260506122040 80 169 0.0 0.0 0.00 0.00 0.00 88 1001.3
20260506121955 80 169 0.0 0.0 0.00 0.00 0.00 88 1001.3
20260506121854 80 169 0.0 0.0 0.00 0.00 0.00 88 1001.3
20260506121725 80 169 0.0 0.0 0.00 0.00 0.00 88 1001.3
20260506121626 80 189 0.0 0.0 0.00 0.00 0.00 88 1000.9
20260506121539 80 189 0.0 0.0 0.00 0.00 0.00 88 1000.9
20260506121441 80 189 0.0 0.0 0.00 0.00 0.00 88 1000.9
20260506121334 80 189 0.0 0.0 0.00 0.00 0.00 88 1000.9
20260506121227 80 189 0.0 0.0 0.00 0.00 0.00 88 1000.9
20260506121128 80 189 0.0 0.0 0.00 0.00 0.00 88 1000.9
20260506121024 80 189 0.0 0.0 0.00 0.00 0.00 88 1000.9
20260506120930 80 189 0.0 0.0 0.00 0.00 0.00 88 1000.9
20260506120844 80 189 0.0 0.0 0.00 0.00 0.00 88 1000.9
20260506120744 80 161 0.0 0.0 0.00 0.00 0.00 87 1000.9
20260506120647 80 161 0.0 0.0 0.00 0.00 0.00 87 1000.9
20260506120523 80 161 0.0 0.0 0.00 0.00 0.00 87 1000.9
20260506120439 80 161 0.0 0.0 0.00 0.00 0.00 87 1000.9
20260506120340 80 179 0.0 0.0 0.00 0.00 0.00 87 1000.9
20260506120242 80 179 0.0 0.0 0.00 0.00 0.00 87 1000.9
20260506120143 80 179 0.0 0.0 0.00 0.00 0.00 87 1000.9
20260506120035 80 179 0.0 0.0 0.00 0.00 0.00 87 1000.7
20260506115925 80 103 0.0 0.0 0.00 0.00 0.00 87 1000.7
20260506115826 80 202 0.0 0.0 0.00 0.00 0.00 87 1000.7
20260506115719 80 202 0.0 0.0 0.00 0.00 0.00 87 1000.7
20260506115645 80 202 0.0 0.0 0.00 0.00 0.00 87 1000.7
20260506115521 80 202 0.0 0.0 0.00 0.00 0.00 87 1000.7
20260506115434 80 202 0.0 0.0 0.00 0.00 0.00 87 1000.7
20260506115339 80 202 0.0 0.0 0.00 0.00 0.00 87 1000.7
20260506115251 80 202 0.0 0.0 0.00 0.00 0.00 87 1000.7
20260506115132 80 213 0.0 0.0 0.00 0.00 0.00 87 1000.7
20260506115027 80 196 0.0 0.0 0.00 0.00 0.00 87 1000.7
20260506114949 80 196 0.0 0.0 0.00 0.00 0.00 87 1000.7
20260506114821 80 206 0.0 0.0 0.00 0.00 0.00 87 1000.7
20260506114738 80 202 0.0 0.0 0.00 0.00 0.00 87 1000.7
20260506114637 80 182 0.0 0.0 0.00 0.00 0.00 87 1000.7
20260506114532 80 173 0.0 0.0 0.00 0.00 0.00 87 1000.4
20260506114453 80 236 0.0 0.0 0.00 0.00 0.00 87 1000.4
20260506114344 80 236 0.0 0.0 0.00 0.00 0.00 87 1000.4
20260506114242 80 161 0.0 0.0 0.00 0.00 0.00 87 1000.4
20260506114155 80 213 0.0 0.0 0.00 0.00 0.00 87 1000.4
20260506114036 80 186 0.0 0.0 0.00 0.00 0.00 87 1000.4
20260506113932 80 186 0.0 0.0 0.00 0.00 0.00 88 1000.4
20260506113832 80 147 0.0 0.0 0.00 0.00 0.00 88 1000.4
20260506113723 80 194 0.0 0.0 0.00 0.00 0.00 88 1000.4
20260506113647 80 194 0.0 0.0 0.00 0.00 0.00 87 1000.4
20260506113602 80 183 0.0 0.0 0.00 0.00 0.00 88 1000.4
20260506113442 80 218 0.0 0.0 0.00 0.00 0.00 87 1000.4
20260506113334 80 242 0.0 0.0 0.00 0.00 0.00 87 1000.4
20260506113226 80 207 0.0 0.0 0.00 0.00 0.00 87 1000.4
20260506113135 80 200 0.0 0.0 0.00 0.00 0.00 87 1000.4
20260506113027 80 213 0.0 0.0 0.00 0.00 0.00 87 1000.2
20260506112949 80 204 0.0 0.0 0.00 0.00 0.00 87 1000.2
20260506112820 80 207 0.0 0.0 0.00 0.00 0.00 87 1000.2
20260506112738 80 220 0.0 0.0 0.00 0.00 0.00 87 1000.2
20260506112639 80 220 0.0 0.0 0.00 0.00 0.00 87 1000.2
20260506112519 80 220 1.0 0.0 0.00 0.00 0.00 87 1000.2
20260506112432 80 227 1.0 0.0 0.00 0.00 0.00 87 1000.2
20260506112332 80 227 1.0 0.0 0.00 0.00 0.00 87 1000.2
20260506112250 80 227 1.0 0.0 0.00 0.00 0.00 87 1000.2
20260506112211 80 227 1.0 0.0 0.00 0.00 0.00 87 1000.2
20260506112112 80 148 1.0 0.0 0.00 0.00 0.00 87 1000.2
20260506111922 80 194 1.0 0.0 0.00 0.00 0.00 87 1000.2
20260506111838 80 194 1.0 0.0 0.00 0.00 0.00 87 1000.2
20260506111739 80 188 2.0 0.0 0.00 0.00 0.00 87 1000.2
20260506111635 80 206 1.0 0.0 0.00 0.00 0.00 87 1000.3
20260506111538 80 220 1.0 0.0 0.00 0.00 0.00 87 1000.1
20260506111430 80 176 1.0 0.0 0.00 0.00 0.00 87 1000.1
20260506111351 80 196 1.0 0.0 0.00 0.00 0.00 87 1000.1
20260506111221 80 167 1.0 0.0 0.00 0.00 0.00 87 1000.1
20260506111143 80 196 1.0 0.0 0.00 0.00 0.00 87 1000.1
20260506111059 80 165 1.0 0.0 0.00 0.00 0.00 87 1000.1
20260506110940 80 202 1.0 0.0 0.00 0.00 0.00 87 1000.1
20260506110836 80 198 1.0 0.0 0.00 0.00 0.00 87 1000.1
20260506110738 80 213 1.0 0.0 0.00 0.00 0.00 87 1000.1
20260506110634 80 209 1.0 0.0 0.00 0.00 0.00 87 1000.1
20260506110531 80 202 1.0 0.0 0.00 0.00 0.00 87 1000.1
20260506110434 80 202 1.0 0.0 0.00 0.00 0.00 87 1000.1
20260506110328 80 203 1.0 0.0 0.00 0.00 0.00 87 1000.1
20260506110250 80 201 1.0 0.0 0.00 0.00 0.00 87 1000.1
20260506110126 80 168 1.0 0.0 0.00 0.00 0.00 87 999.8
20260506110041 80 214 1.0 0.0 0.00 0.00 0.00 87 999.8
20260506105943 80 188 1.0 0.0 0.00 0.00 0.00 87 999.8
20260506105835 80 185 2.0 0.0 0.00 0.00 0.00 87 999.8
20260506105727 80 210 2.0 0.0 0.00 0.00 0.00 87 999.8
20260506105629 80 182 2.0 0.0 0.00 0.00 0.00 87 999.8
20260506105520 80 216 2.0 0.0 0.00 0.00 0.00 87 999.8
20260506105448 80 208 2.0 0.0 0.00 0.00 0.00 87 999.8
20260506105323 80 170 2.0 0.0 0.00 0.00 0.00 87 999.8
20260506105236 80 190 2.0 0.0 0.00 0.00 0.00 87 999.8
20260506105137 80 156 1.0 0.0 0.00 0.00 0.00 87 999.8
20260506105049 80 204 1.0 0.0 0.00 0.00 0.00 87 999.8
20260506104931 80 175 1.0 0.0 0.00 0.00 0.00 87 999.8
20260506104825 80 194 1.0 0.0 0.00 0.00 0.00 87 999.8
20260506104746 80 154 1.0 0.0 0.00 0.00 0.00 87 999.8
20260506104626 80 190 1.0 0.0 0.00 0.00 0.00 87 999.7
20260506104530 80 210 1.0 0.0 0.00 0.00 0.00 87 999.7
20260506104441 80 186 1.0 0.0 0.00 0.00 0.00 87 999.7
20260506104342 80 216 1.0 0.0 0.00 0.00 0.00 87 999.7
20260506104233 80 129 1.0 0.0 0.00 0.00 0.00 87 999.7
20260506104155 80 215 1.0 0.0 0.00 0.00 0.00 87 999.7
20260506104037 80 215 1.0 0.0 0.00 0.00 0.00 87 999.7
20260506103932 80 215 1.0 0.0 0.00 0.00 0.00 87 999.7
20260506103824 80 192 0.0 0.0 0.00 0.00 0.00 87 999.7
20260506103733 80 171 0.0 0.0 0.00 0.00 0.00 87 999.7
20260506103645 80 200 0.0 0.0 0.00 0.00 0.00 87 999.7
20260506103529 80 205 0.0 0.0 0.00 0.00 0.00 87 999.7
20260506103422 80 172 0.0 0.0 0.00 0.00 0.00 87 999.7
20260506103344 80 172 0.0 0.0 0.00 0.00 0.00 87 999.7
20260506103220 80 194 0.0 0.0 0.00 0.00 0.00 87 999.7
20260506103136 80 174 0.0 0.0 0.00 0.00 0.00 87 999.7
20260506103041 80 174 0.0 0.0 0.00 0.00 0.00 87 999.5
20260506102934 80 174 0.0 0.0 0.00 0.00 0.00 87 999.5
20260506102842 80 171 0.0 0.0 0.00 0.00 0.00 87 999.5
20260506102805 80 171 0.0 0.0 0.00 0.00 0.00 87 999.5
20260506102636 80 196 0.0 0.0 0.00 0.00 0.00 87 999.5
20260506102528 80 213 0.0 0.0 0.00 0.00 0.00 87 999.5
20260506102423 80 213 0.0 0.0 0.00 0.00 0.00 87 999.5
20260506102325 80 179 0.0 0.0 0.00 0.00 0.00 87 999.5
20260506102222 80 179 0.0 0.0 0.00 0.00 0.00 87 999.5
20260506102147 80 179 0.0 0.0 0.00 0.00 0.00 87 999.5
20260506102109 80 179 0.0 0.0 0.00 0.00 0.00 87 999.5
20260506101943 80 179 0.0 0.0 0.00 0.00 0.00 87 999.5
20260506101844 80 179 0.0 0.0 0.00 0.00 0.00 87 999.5
20260506101741 80 179 0.0 0.0 0.00 0.00 0.00 87 999.5
20260506101704 80 179 0.0 0.0 0.00 0.00 0.00 87 999.6
20260506101537 80 179 0.0 0.0 0.00 0.00 0.00 87 999.3
20260506101457 80 179 0.0 0.0 0.00 0.00 0.00 87 999.3
20260506101322 80 179 0.0 0.0 0.00 0.00 0.00 87 999.3
20260506101235 80 179 0.0 0.0 0.00 0.00 0.00 87 999.3
20260506101136 80 179 0.0 0.0 0.00 0.00 0.00 87 999.3
20260506101031 80 179 0.0 0.0 0.00 0.00 0.00 87 999.3
20260506100924 80 179 0.0 0.0 0.00 0.00 0.00 87 999.3
20260506100826 80 163 0.0 0.0 0.00 0.00 0.00 87 999.3
20260506100725 80 163 0.0 0.0 0.00 0.00 0.00 87 999.3
20260506100645 80 163 0.0 0.0 0.00 0.00 0.00 87 999.3
20260506100521 80 163 0.0 0.0 0.00 0.00 0.00 87 999.3
20260506100433 80 163 0.0 0.0 0.00 0.00 0.00 87 999.3
20260506100334 80 126 0.0 0.0 0.00 0.00 0.00 87 999.3
20260506100227 80 126 0.0 0.0 0.00 0.00 0.00 87 999.3
20260506100127 80 126 0.0 0.0 0.00 0.00 0.00 87 999.3
20260506100021 80 126 0.0 0.0 0.00 0.00 0.00 87 999.3
20260506095922 80 126 0.0 0.0 0.00 0.00 0.00 87 999.3
20260506095826 80 203 0.0 0.0 0.00 0.00 0.00 87 999.3
20260506095720 80 96 0.0 0.0 0.00 0.00 0.00 87 999.3
20260506095647 80 96 0.0 0.0 0.00 0.00 0.00 87 999.3
20260506095538 80 96 0.0 0.0 0.00 0.00 0.00 87 999.3
20260506095430 80 96 0.0 0.0 0.00 0.00 0.00 86 999.3
20260506095332 80 223 0.0 0.0 0.00 0.00 0.00 86 999.3
20260506095227 80 223 0.0 0.0 0.00 0.00 0.00 86 999.3
20260506095128 80 223 0.0 0.0 0.00 0.00 0.00 86 999.3
20260506095049 80 223 0.0 0.0 0.00 0.00 0.00 86 999.3
20260506094922 80 223 0.0 0.0 0.00 0.00 0.00 86 999.3
20260506094835 80 223 0.0 0.0 0.00 0.00 0.00 86 999.3
20260506094758 80 223 0.0 0.0 0.00 0.00 0.00 86 999.3
20260506094638 80 223 0.0 0.0 0.00 0.00 0.00 86 999.3
20260506094529 80 210 0.0 0.0 0.00 0.00 0.00 86 999.4
20260506094425 80 210 0.0 0.0 0.00 0.00 0.00 86 999.4
20260506094333 80 197 0.0 0.0 0.00 0.00 0.00 86 999.4
20260506094226 80 196 1.0 0.0 0.00 0.00 0.00 86 999.4
20260506094150 80 204 1.0 0.0 0.00 0.00 0.00 86 999.4
20260506094101 80 184 1.0 0.0 0.00 0.00 0.00 86 999.4
20260506093941 80 207 1.0 0.0 0.00 0.00 0.00 86 999.4
20260506093836 80 200 1.0 0.0 0.00 0.00 0.00 86 999.4
20260506093731 80 169 2.0 0.0 0.00 0.00 0.00 86 999.4
20260506093642 80 157 2.0 0.0 0.00 0.00 0.00 85 999.4
20260506093532 80 209 2.0 0.0 0.00 0.00 0.00 85 999.4
20260506093434 80 225 2.0 0.0 0.00 0.00 0.00 85 999.4
20260506093325 80 207 3.0 0.0 0.00 0.00 0.00 85 999.4
20260506093224 80 229 3.0 0.0 0.00 0.00 0.00 85 999.4
20260506093125 80 169 3.0 0.0 0.00 0.00 0.00 85 999.3
20260506093021 80 209 3.0 0.0 0.00 0.00 0.00 85 999.3
20260506092951 80 207 3.0 0.0 0.00 0.00 0.00 85 999.3
20260506092902 80 183 3.0 0.0 0.00 0.00 0.00 85 999.3
20260506092742 80 217 3.0 0.0 0.00 0.00 0.00 85 999.3
20260506092637 80 227 3.0 0.0 0.00 0.00 0.00 85 999.3
20260506092530 80 189 2.0 0.0 0.00 0.00 0.00 85 999.3
20260506092452 80 161 2.0 0.0 0.00 0.00 0.00 85 999.3
20260506092323 80 162 2.0 0.0 0.00 0.00 0.00 85 999.3
20260506092223 80 232 2.0 0.0 0.00 0.00 0.00 85 999.3
20260506092125 80 218 2.0 0.0 0.00 0.00 0.00 85 999.3
20260506092049 80 213 2.0 0.0 0.00 0.00 0.00 85 999.3
20260506091927 80 279 1.0 0.0 0.00 0.00 0.00 85 999.3
20260506091848 80 164 1.0 0.0 0.00 0.00 0.00 85 999.3
20260506091719 80 193 1.0 0.0 0.00 0.00 0.00 85 999.3
20260506091634 80 188 1.0 0.0 0.00 0.00 0.00 85 999.4
20260506091538 80 216 2.0 0.0 0.00 0.00 0.00 85 999.5
20260506091435 80 178 2.0 0.0 0.00 0.00 0.00 85 999.5
20260506091327 80 199 2.0 0.0 0.00 0.00 0.00 85 999.5
20260506091228 80 195 2.0 0.0 0.00 0.00 0.00 85 999.5
20260506091119 80 158 2.0 0.0 0.00 0.00 0.00 85 999.5
20260506091044 80 152 2.0 0.0 0.00 0.00 0.00 85 999.5
20260506090935 81 198 2.0 0.0 0.00 0.00 0.00 85 999.5
20260506090825 80 202 2.0 0.0 0.00 0.00 0.00 85 999.5
20260506090729 80 171 2.0 0.0 0.00 0.00 0.00 85 999.5
20260506090622 80 188 2.0 0.0 0.00 0.00 0.00 85 999.5
20260506090546 81 205 2.0 0.0 0.00 0.00 0.00 85 999.5
20260506090511 80 167 2.0 0.0 0.00 0.00 0.00 85 999.5
20260506090402 80 186 2.0 0.0 0.00 0.00 0.00 85 999.5
20260506090242 81 202 2.0 0.0 0.00 0.00 0.00 85 999.5
20260506090131 81 186 2.0 0.0 0.00 0.00 0.00 85 999.5
20260506090035 81 187 3.0 0.0 0.00 0.00 0.00 85 999.8
20260506085927 81 184 3.0 0.0 0.00 0.00 0.00 85 999.8
20260506085825 81 173 3.0 0.0 0.00 0.00 0.00 85 999.8
20260506085730 81 215 3.0 0.0 0.00 0.00 0.00 85 999.8
20260506085626 81 224 3.0 0.0 0.00 0.00 0.00 85 999.8
20260506085547 81 183 3.0 0.0 0.00 0.00 0.00 85 999.8
20260506085422 81 178 3.0 0.0 0.00 0.00 0.00 85 999.8
20260506085333 81 248 3.0 0.0 0.00 0.00 0.00 85 999.8
20260506085239 81 165 3.0 0.0 0.00 0.00 0.00 85 999.8
20260506085155 81 198 3.0 0.0 0.00 0.00 0.00 85 999.8
20260506085035 81 230 3.0 0.0 0.00 0.00 0.00 85 999.8
20260506084946 81 201 3.0 0.0 0.00 0.00 0.00 85 999.8
20260506084826 81 211 3.0 0.0 0.00 0.00 0.00 85 999.8
20260506084738 81 204 3.0 0.0 0.00 0.00 0.00 85 999.8
20260506084636 81 203 3.0 0.0 0.00 0.00 0.00 85 999.8
20260506084535 81 219 3.0 0.0 0.00 0.00 0.00 85 999.8
20260506084427 81 214 2.0 0.0 0.00 0.00 0.00 85 999.8
20260506084333 81 243 2.0 0.0 0.00 0.00 0.00 85 999.8
20260506084227 81 180 2.0 0.0 0.00 0.00 0.00 85 999.8
20260506084122 81 160 2.0 0.0 0.00 0.00 0.00 85 999.8
20260506084024 81 182 2.0 0.0 0.00 0.00 0.00 85 999.8
20260506083937 81 179 2.0 0.0 0.00 0.00 0.00 85 999.8
20260506083841 81 188 2.0 0.0 0.00 0.00 0.00 85 999.8
20260506083731 81 175 2.0 0.0 0.00 0.00 0.00 85 999.8
20260506083641 81 195 2.0 0.0 0.00 0.00 0.00 85 999.8
20260506083533 81 181 2.0 0.0 0.00 0.00 0.00 85 999.8
20260506083427 81 183 3.0 0.0 0.00 0.00 0.00 85 999.8
20260506083330 81 230 3.0 0.0 0.00 0.00 0.00 85 999.8
20260506083221 81 196 3.0 0.0 0.00 0.00 0.00 85 999.8
20260506083144 81 232 3.0 0.0 0.00 0.00 0.00 85 999.8
20260506083037 81 220 3.0 0.0 0.00 0.00 0.00 85 999.7
20260506082936 81 176 3.0 0.0 0.00 0.00 0.00 85 999.7
20260506082901 81 199 3.0 0.0 0.00 0.00 0.00 85 999.7
20260506082804 81 194 3.0 0.0 0.00 0.00 0.00 85 999.7
20260506082638 81 161 3.0 0.0 0.00 0.00 0.00 85 999.7
20260506082540 81 153 3.0 0.0 0.00 0.00 0.00 85 999.7
20260506082430 81 223 3.0 0.0 0.00 0.00 0.00 85 999.7
20260506082325 81 186 3.0 0.0 0.00 0.00 0.00 85 999.7
20260506082250 81 212 3.0 0.0 0.00 0.00 0.00 85 999.7
20260506082126 81 182 3.0 0.0 0.00 0.00 0.00 85 999.7
20260506082019 81 213 3.0 0.0 0.00 0.00 0.00 85 999.7
20260506081944 81 187 3.0 0.0 0.00 0.00 0.00 85 999.7
20260506081905 81 210 3.0 0.0 0.00 0.00 0.00 85 999.7
20260506081757 81 227 3.0 0.0 0.00 0.00 0.00 85 999.7
20260506081634 81 204 3.0 0.0 0.00 0.00 0.00 85 999.7
20260506081546 81 211 3.0 0.0 0.00 0.00 0.00 85 999.8
20260506081426 81 211 3.0 0.0 0.00 0.00 0.00 85 999.8
20260506081326 81 192 3.0 0.0 0.00 0.00 0.00 85 999.8
20260506081246 81 206 3.0 0.0 0.00 0.00 0.00 85 999.8
20260506081138 81 165 3.0 0.0 0.00 0.00 0.00 85 999.8
20260506081031 81 182 3.0 0.0 0.00 0.00 0.00 85 999.8
20260506080934 81 233 3.0 0.0 0.00 0.00 0.00 85 999.8
20260506080830 81 145 3.0 0.0 0.00 0.00 0.00 85 999.8
20260506080751 81 204 3.0 0.0 0.00 0.00 0.00 85 999.8
20260506080645 81 207 3.0 0.0 0.00 0.00 0.00 85 999.8
20260506080528 81 119 3.0 0.0 0.00 0.00 0.00 85 999.8
20260506080424 81 202 3.0 0.0 0.00 0.00 0.00 85 999.8
20260506080346 81 202 3.0 0.0 0.00 0.00 0.00 85 999.8
20260506080236 81 215 3.0 0.0 0.00 0.00 0.00 85 999.8
20260506080137 81 209 3.0 0.0 0.00 0.00 0.00 85 999.8
20260506073525 81 212 4.0 0.0 0.00 0.00 0.00 85 1000.1
20260506073448 81 234 4.0 0.0 0.00 0.00 0.00 85 1000.1
20260506073325 81 198 4.0 0.0 0.00 0.00 0.00 85 1000.1
20260506073236 81 183 4.0 0.0 0.00 0.00 0.00 85 1000.1
20260506073143 81 140 4.0 0.0 0.00 0.00 0.00 85 1000.1
20260506073053 81 248 4.0 0.0 0.00 0.00 0.00 85 1000.2
20260506072956 81 175 4.0 0.0 0.00 0.00 0.00 85 1000.2
20260506072831 80 140 3.0 0.0 0.00 0.00 0.00 85 1000.2
20260506072733 80 194 3.0 0.0 0.00 0.00 0.00 85 1000.2
20260506072627 80 236 3.0 0.0 0.00 0.00 0.00 85 1000.2
20260506072526 80 178 3.0 0.0 0.00 0.00 0.00 85 1000.2
20260506072427 80 72 2.0 0.0 0.00 0.00 0.00 86 1000.2
20260506072324 80 195 2.0 0.0 0.00 0.00 0.00 86 1000.2
20260506072223 80 195 2.0 0.0 0.00 0.00 0.00 86 1000.2
20260506072131 80 195 2.0 0.0 0.00 0.00 0.00 86 1000.2
20260506072023 80 210 2.0 0.0 0.00 0.00 0.00 86 1000.2
20260506071924 80 217 2.0 0.0 0.00 0.00 0.00 86 1000.2
20260506071837 81 165 2.0 0.0 0.00 0.00 0.00 86 1000.2
20260506071741 81 201 2.0 0.0 0.00 0.00 0.00 86 1000.2
20260506071634 80 228 2.0 0.0 0.00 0.00 0.00 86 1000.2
20260506071542 80 202 2.0 0.0 0.00 0.00 0.00 86 1000.2
20260506071435 81 202 2.0 0.0 0.00 0.00 0.00 86 1000.2
20260506071357 80 168 2.0 0.0 0.00 0.00 0.00 86 1000.2
20260506071228 80 200 2.0 0.0 0.00 0.00 0.00 86 1000.2
20260506071123 80 221 3.0 0.0 0.00 0.00 0.00 86 1000.2
20260506071029 80 224 3.0 0.0 0.00 0.00 0.00 86 1000.2
20260506070950 80 232 2.0 0.0 0.00 0.00 0.00 86 1000.2
20260506070823 80 184 2.0 0.0 0.00 0.00 0.00 86 1000.2
20260506070733 81 258 2.0 0.0 0.00 0.00 0.00 86 1000.2
20260506070637 80 190 3.0 0.0 0.00 0.00 0.00 86 1000.2
20260506070529 80 23 2.0 0.0 0.00 0.00 0.00 86 1000.2
20260506070450 81 211 3.0 0.0 0.00 0.00 0.00 86 1000.2
20260506070325 81 236 2.0 0.0 0.00 0.00 0.00 86 1000.2
20260506070237 81 205 2.0 0.0 0.00 0.00 0.00 86 1000.2
20260506070137 81 211 2.0 0.0 0.00 0.00 0.00 86 1000.2
20260506062420 80 217 2.0 0.0 0.00 0.00 0.00 86 1000.4
20260506062348 80 207 2.0 0.0 0.00 0.00 0.00 86 1000.4
20260506062305 80 205 2.0 0.0 0.00 0.00 0.00 86 1000.4
20260506062142 80 176 2.0 0.0 0.00 0.00 0.00 86 1000.4
20260506062059 80 209 2.0 0.0 0.00 0.00 0.00 86 1000.4
20260506061942 80 351 2.0 0.0 0.00 0.00 0.00 86 1000.4
20260506061834 80 198 2.0 0.0 0.00 0.00 0.00 86 1000.4
20260506061741 80 199 2.0 0.0 0.00 0.00 0.00 86 1000.4
20260506061643 80 203 2.0 0.0 0.00 0.00 0.00 86 1000.4
20260506061554 80 195 2.0 0.0 0.00 0.00 0.00 86 1000.8
20260506061438 80 214 2.0 0.0 0.00 0.00 0.00 86 1000.8
20260506061329 80 259 2.0 0.0 0.00 0.00 0.00 86 1000.8
20260506061222 80 238 1.0 0.0 0.00 0.00 0.00 86 1000.8
20260506061121 80 202 1.0 0.0 0.00 0.00 0.00 86 1000.8
20260506061024 80 171 1.0 0.0 0.00 0.00 0.00 86 1000.8
20260506060941 80 236 1.0 0.0 0.00 0.00 0.00 86 1000.8
20260506060842 80 281 1.0 0.0 0.00 0.00 0.00 86 1000.8
20260506060735 80 208 1.0 0.0 0.00 0.00 0.00 86 1000.8
20260506060641 80 177 1.0 0.0 0.00 0.00 0.00 86 1000.8
20260506060532 80 219 2.0 0.0 0.00 0.00 0.00 86 1000.8
20260506060452 80 161 2.0 0.0 0.00 0.00 0.00 86 1000.8
20260506060324 80 249 2.0 0.0 0.00 0.00 0.00 86 1000.8
20260506060244 80 157 2.0 0.0 0.00 0.00 0.00 86 1000.8
20260506060134 80 193 2.0 0.0 0.00 0.00 0.00 86 1000.8
20260506051355 81 228 2.0 0.0 0.00 0.00 0.00 85 1001.2
20260506051302 81 205 3.0 0.0 0.00 0.00 0.00 85 1001.2
20260506051202 81 228 3.0 0.0 0.00 0.00 0.00 85 1001.2
20260506051036 81 155 3.0 0.0 0.00 0.00 0.00 85 1001.2
20260506050928 81 202 3.0 0.0 0.00 0.00 0.00 85 1001.2
20260506050852 81 213 3.0 0.0 0.00 0.00 0.00 85 1001.2
20260506050725 81 223 3.0 0.0 0.00 0.00 0.00 85 1001.2
20260506050632 81 155 3.0 0.0 0.00 0.00 0.00 85 1001.2
20260506050527 81 180 2.0 0.0 0.00 0.00 0.00 85 1001.2
20260506050447 81 200 2.0 0.0 0.00 0.00 0.00 85 1001.2
20260506050326 81 189 1.0 0.0 0.00 0.00 0.00 85 1001.2
20260506050247 81 173 1.0 0.0 0.00 0.00 0.00 85 1001.2
20260506050137 81 209 1.0 0.0 0.00 0.00 0.00 85 1001.3
20260506045028 81 202 1.0 0.0 0.00 0.00 0.00 85 1001.3
20260506044921 81 186 2.0 0.0 0.00 0.00 0.00 85 1001.3
20260506044828 81 218 2.0 0.0 0.00 0.00 0.00 85 1001.3
20260506044723 81 221 2.0 0.0 0.00 0.00 0.00 85 1001.3
20260506044647 81 204 2.0 0.0 0.00 0.00 0.00 85 1001.3
20260506044523 81 240 2.0 0.0 0.00 0.00 0.00 85 1001.1
20260506044435 81 161 2.0 0.0 0.00 0.00 0.00 85 1001.1
20260506044336 81 163 2.0 0.0 0.00 0.00 0.00 85 1001.1
20260506044226 81 205 2.0 0.0 0.00 0.00 0.00 85 1001.1
20260506044150 81 150 2.0 0.0 0.00 0.00 0.00 85 1001.1
20260506044025 81 208 2.0 0.0 0.00 0.00 0.00 85 1001.1
20260506043947 81 107 2.0 0.0 0.00 0.00 0.00 85 1001.1
20260506043820 81 224 2.0 0.0 0.00 0.00 0.00 85 1001.1
20260506043731 81 161 2.0 0.0 0.00 0.00 0.00 85 1001.1
20260506043635 81 198 2.0 0.0 0.00 0.00 0.00 85 1001.1
20260506043528 81 198 2.0 0.0 0.00 0.00 0.00 85 1001.1
20260506043449 81 239 2.0 0.0 0.00 0.00 0.00 85 1001.1
20260506043325 81 199 2.0 0.0 0.00 0.00 0.00 85 1001.1
20260506043237 81 150 2.0 0.0 0.00 0.00 0.00 85 1001.1
20260506043138 82 204 2.0 0.0 0.00 0.00 0.00 85 1001.1
20260506043032 81 202 2.0 0.0 0.00 0.00 0.00 85 1001.2
20260506042925 81 215 2.0 0.0 0.00 0.00 0.00 85 1001.2
20260506042829 81 175 2.0 0.0 0.00 0.00 0.00 84 1001.2
20260506042724 81 215 2.0 0.0 0.00 0.00 0.00 84 1001.2
20260506042622 82 217 2.0 0.0 0.00 0.00 0.00 84 1001.2
20260506042526 82 233 2.0 0.0 0.00 0.00 0.00 84 1001.2
20260506042442 82 195 2.0 0.0 0.00 0.00 0.00 84 1001.2
20260506042343 82 242 2.0 0.0 0.00 0.00 0.00 84 1001.2
20260506042233 82 161 2.0 0.0 0.00 0.00 0.00 84 1001.2
20260506042127 82 196 2.0 0.0 0.00 0.00 0.00 84 1001.2
20260506042027 82 211 1.0 0.0 0.00 0.00 0.00 84 1001.2
20260506041925 82 207 2.0 0.0 0.00 0.00 0.00 84 1001.2
20260506041849 82 208 2.0 0.0 0.00 0.00 0.00 84 1001.2
20260506041723 82 219 2.0 0.0 0.00 0.00 0.00 84 1001.2
20260506041634 82 132 2.0 0.0 0.00 0.00 0.00 84 1001.2
20260506041541 82 212 2.0 0.0 0.00 0.00 0.00 84 1001.2
20260506041435 82 232 2.0 0.0 0.00 0.00 0.00 84 1001.2
20260506041336 82 200 3.0 0.0 0.00 0.00 0.00 84 1001.2
20260506041229 82 220 3.0 0.0 0.00 0.00 0.00 84 1001.2
20260506041125 82 206 2.0 0.0 0.00 0.00 0.00 84 1001.2
20260506041027 82 198 3.0 0.0 0.00 0.00 0.00 84 1001.2
20260506040940 82 321 3.0 0.0 0.00 0.00 0.00 84 1001.2
20260506040840 82 321 3.0 0.0 0.00 0.00 0.00 84 1001.2
20260506040734 82 217 3.0 0.0 0.00 0.00 0.00 84 1001.2
20260506040659 82 171 2.0 0.0 0.00 0.00 0.00 84 1001.2
20260506040601 82 198 2.0 0.0 0.00 0.00 0.00 84 1001.2
20260506040428 82 223 2.0 0.0 0.00 0.00 0.00 84 1001.2
20260506040328 82 180 2.0 0.0 0.00 0.00 0.00 84 1001.2
20260506040229 82 142 2.0 0.0 0.00 0.00 0.00 84 1001.2
20260506040121 82 211 2.0 0.0 0.00 0.00 0.00 84 1001.0
20260506040046 82 171 2.0 0.0 0.00 0.00 0.00 84 1001.0
20260506035957 82 183 2.0 0.0 0.00 0.00 0.00 84 1001.0
20260506035837 82 170 2.0 0.0 0.00 0.00 0.00 84 1001.0
20260506035729 82 202 2.0 0.0 0.00 0.00 0.00 84 1001.0
20260506035626 82 211 2.0 0.0 0.00 0.00 0.00 84 1001.0
20260506035527 82 267 2.0 0.0 0.00 0.00 0.00 84 1001.0
20260506035421 82 200 2.0 0.0 0.00 0.00 0.00 84 1001.0
20260506035346 82 159 2.0 0.0 0.00 0.00 0.00 84 1001.0
20260506035242 82 249 2.0 0.0 0.00 0.00 0.00 83 1001.0
20260506035201 82 254 2.0 0.0 0.00 0.00 0.00 83 1001.0
20260506035053 82 187 3.0 0.0 0.00 0.00 0.00 83 1001.0
20260506034934 82 237 2.0 0.0 0.00 0.00 0.00 83 1001.0
20260506034829 82 204 2.0 0.0 0.00 0.00 0.00 83 1001.0
20260506034721 82 106 2.0 0.0 0.00 0.00 0.00 83 1001.0
20260506034645 82 190 2.0 0.0 0.00 0.00 0.00 83 1001.0
20260506034545 82 173 2.0 0.0 0.00 0.00 0.00 83 1000.8
20260506034459 82 232 2.0 0.0 0.00 0.00 0.00 83 1000.8
20260506034340 82 165 2.0 0.0 0.00 0.00 0.00 83 1000.8
20260506034235 82 162 2.0 0.0 0.00 0.00 0.00 83 1000.8
20260506034127 82 232 2.0 0.0 0.00 0.00 0.00 83 1000.8
20260506034032 82 161 2.0 0.0 0.00 0.00 0.00 83 1000.8
20260506033925 82 168 2.0 0.0 0.00 0.00 0.00 83 1000.8
20260506033849 82 182 2.0 0.0 0.00 0.00 0.00 83 1000.8
20260506033721 82 192 2.0 0.0 0.00 0.00 0.00 83 1000.8
20260506033631 82 172 2.0 0.0 0.00 0.00 0.00 83 1000.8
20260506033532 82 194 2.0 0.0 0.00 0.00 0.00 83 1000.8
20260506033458 82 187 2.0 0.0 0.00 0.00 0.00 83 1000.8
20260506033327 82 200 2.0 0.0 0.00 0.00 0.00 83 1000.8
20260506033256 82 212 2.0 0.0 0.00 0.00 0.00 83 1000.8
20260506033138 82 136 2.0 0.0 0.00 0.00 0.00 83 1000.8
20260506033036 82 219 2.0 0.0 0.00 0.00 0.00 83 1000.7
20260506032927 82 217 3.0 0.0 0.00 0.00 0.00 83 1000.7
20260506032847 82 152 2.0 0.0 0.00 0.00 0.00 83 1000.7
20260506032746 82 187 2.0 0.0 0.00 0.00 0.00 83 1000.7
20260506032638 82 298 2.0 0.0 0.00 0.00 0.00 83 1000.7
20260506032529 82 175 2.0 0.0 0.00 0.00 0.00 83 1000.7
20260506032431 82 201 2.0 0.0 0.00 0.00 0.00 83 1000.7
20260506032326 82 219 2.0 0.0 0.00 0.00 0.00 83 1000.7
20260506032250 82 257 2.0 0.0 0.00 0.00 0.00 83 1000.7
20260506032159 82 240 2.0 0.0 0.00 0.00 0.00 83 1000.7
20260506032043 82 216 1.0 0.0 0.00 0.00 0.00 83 1000.7
20260506031917 82 205 1.0 0.0 0.00 0.00 0.00 83 1000.7
20260506031831 82 312 1.0 0.0 0.00 0.00 0.00 83 1000.7
20260506031739 82 200 1.0 0.0 0.00 0.00 0.00 83 1000.7
20260506031636 82 194 2.0 0.0 0.00 0.00 0.00 83 1000.6
20260506031557 82 241 2.0 0.0 0.00 0.00 0.00 83 1000.3
20260506031429 82 89 2.0 0.0 0.00 0.00 0.00 83 1000.3
20260506031350 82 185 2.0 0.0 0.00 0.00 0.00 83 1000.3
20260506031223 82 171 2.0 0.0 0.00 0.00 0.00 83 1000.3
20260506031145 82 244 2.0 0.0 0.00 0.00 0.00 83 1000.3
20260506031047 82 222 2.0 0.0 0.00 0.00 0.00 83 1000.3
20260506030957 82 201 2.0 0.0 0.00 0.00 0.00 83 1000.3
20260506030840 82 202 1.0 0.0 0.00 0.00 0.00 83 1000.3
20260506030739 82 265 2.0 0.0 0.00 0.00 0.00 83 1000.3
20260506030631 82 171 2.0 0.0 0.00 0.00 0.00 83 1000.3
20260506030554 82 226 2.0 0.0 0.00 0.00 0.00 83 1000.3
20260506030453 82 199 2.0 0.0 0.00 0.00 0.00 83 1000.3
20260506030324 82 173 2.0 0.0 0.00 0.00 0.00 83 1000.3
20260506030245 82 199 2.0 0.0 0.00 0.00 0.00 83 1000.3
20260506030156 82 212 2.0 0.0 0.00 0.00 0.00 83 1000.3
20260506030037 82 184 2.0 0.0 0.00 0.00 0.00 83 1000.1
20260506025949 82 216 1.0 0.0 0.00 0.00 0.00 83 1000.1
20260506025834 82 194 1.0 0.0 0.00 0.00 0.00 83 1000.1
20260506025725 82 186 1.0 0.0 0.00 0.00 0.00 83 1000.1
20260506025646 82 277 1.0 0.0 0.00 0.00 0.00 83 1000.1
20260506025541 82 197 1.0 0.0 0.00 0.00 0.00 83 1000.1
20260506025504 82 202 1.0 0.0 0.00 0.00 0.00 83 1000.1
20260506025335 82 159 1.0 0.0 0.00 0.00 0.00 83 1000.1
20260506025226 82 155 1.0 0.0 0.00 0.00 0.00 83 1000.1
20260506025145 82 277 1.0 0.0 0.00 0.00 0.00 83 1000.1
20260506025022 82 188 1.0 0.0 0.00 0.00 0.00 83 1000.1
20260506024946 82 188 1.0 0.0 0.00 0.00 0.00 83 1000.1
20260506024906 82 175 2.0 0.0 0.00 0.00 0.00 83 1000.1
20260506024740 82 240 2.0 0.0 0.00 0.00 0.00 83 1000.1
20260506024629 82 211 2.0 0.0 0.00 0.00 0.00 83 999.8
20260506024533 82 165 2.0 0.0 0.00 0.00 0.00 83 999.8
20260506024459 82 244 2.0 0.0 0.00 0.00 0.00 83 999.8
20260506024347 82 199 1.0 0.0 0.00 0.00 0.00 83 999.8
20260506024228 82 244 1.0 0.0 0.00 0.00 0.00 83 999.8
20260506024122 82 102 2.0 0.0 0.00 0.00 0.00 83 999.8
20260506024049 82 360 2.0 0.0 0.00 0.00 0.00 83 999.8
20260506023921 82 203 2.0 0.0 0.00 0.00 0.00 83 999.8
20260506023834 82 105 2.0 0.0 0.00 0.00 0.00 82 999.8
20260506023735 82 105 2.0 0.0 0.00 0.00 0.00 83 999.8
20260506023628 82 230 2.0 0.0 0.00 0.00 0.00 82 999.8
20260506023549 82 226 2.0 0.0 0.00 0.00 0.00 82 999.8
20260506023423 82 204 2.0 0.0 0.00 0.00 0.00 82 999.8
20260506023328 82 202 2.0 0.0 0.00 0.00 0.00 82 999.8
20260506023244 82 207 2.0 0.0 0.00 0.00 0.00 82 999.8
20260506023123 82 173 2.0 0.0 0.00 0.00 0.00 82 999.8
20260506023044 82 142 2.0 0.0 0.00 0.00 0.00 82 999.8
20260506022935 82 156 2.0 0.0 0.00 0.00 0.00 82 999.8
20260506022827 82 214 2.0 0.0 0.00 0.00 0.00 82 999.8
20260506022750 82 172 2.0 0.0 0.00 0.00 0.00 82 999.8
20260506022624 82 176 2.0 0.0 0.00 0.00 0.00 82 999.8
20260506022529 82 196 2.0 0.0 0.00 0.00 0.00 82 999.8
20260506022422 82 275 2.0 0.0 0.00 0.00 0.00 82 999.8
20260506022346 82 127 2.0 0.0 0.00 0.00 0.00 82 999.8
20260506022221 82 190 2.0 0.0 0.00 0.00 0.00 82 999.8
20260506022134 82 227 2.0 0.0 0.00 0.00 0.00 82 999.8
20260506022035 83 218 2.0 0.0 0.00 0.00 0.00 82 999.8
20260506021928 83 211 2.0 0.0 0.00 0.00 0.00 82 999.8
20260506021841 83 211 2.0 0.0 0.00 0.00 0.00 82 999.8
20260506021740 83 211 2.0 0.0 0.00 0.00 0.00 82 999.8
20260506021630 82 211 2.0 0.0 0.00 0.00 0.00 82 999.7
20260506021525 83 192 2.0 0.0 0.00 0.00 0.00 82 999.5
20260506021427 83 187 2.0 0.0 0.00 0.00 0.00 82 999.5
20260506021318 83 167 2.0 0.0 0.00 0.00 0.00 82 999.5
20260506021245 83 238 2.0 0.0 0.00 0.00 0.00 82 999.5
20260506021123 83 173 2.0 0.0 0.00 0.00 0.00 82 999.5
20260506021043 83 167 2.0 0.0 0.00 0.00 0.00 82 999.5
20260506020933 83 165 2.0 0.0 0.00 0.00 0.00 82 999.5
20260506020828 83 202 2.0 0.0 0.00 0.00 0.00 82 999.5
20260506020749 83 221 2.0 0.0 0.00 0.00 0.00 81 999.5
20260506020621 83 165 2.0 0.0 0.00 0.00 0.00 81 999.5
20260506020532 83 244 2.0 0.0 0.00 0.00 0.00 81 999.5
20260506020422 83 195 1.0 0.0 0.00 0.00 0.00 81 999.5
20260506020336 83 214 1.0 0.0 0.00 0.00 0.00 81 999.5
20260506020235 83 238 1.0 0.0 0.00 0.00 0.00 81 999.5
20260506020127 83 192 2.0 0.0 0.00 0.00 0.00 81 999.2
20260506020028 83 236 2.0 0.0 0.00 0.00 0.00 81 999.2
20260506015942 83 217 2.0 0.0 0.00 0.00 0.00 81 999.2
20260506015846 83 171 2.0 0.0 0.00 0.00 0.00 81 999.2
20260506015746 83 116 2.0 0.0 0.00 0.00 0.00 81 999.2
20260506015640 83 93 2.0 0.0 0.00 0.00 0.00 81 999.2
20260506015548 83 163 2.0 0.0 0.00 0.00 0.00 81 999.2
20260506015440 83 195 2.0 0.0 0.00 0.00 0.00 81 999.2
20260506015330 83 185 2.0 0.0 0.00 0.00 0.00 81 999.2
20260506015233 83 207 2.0 0.0 0.00 0.00 0.00 81 999.2
20260506015144 83 195 2.0 0.0 0.00 0.00 0.00 81 999.2
20260506015028 83 211 2.0 0.0 0.00 0.00 0.00 81 999.2
20260506014933 83 215 2.0 0.0 0.00 0.00 0.00 81 999.2
20260506014825 83 209 2.0 0.0 0.00 0.00 0.00 81 999.2
20260506014747 83 205 2.0 0.0 0.00 0.00 0.00 81 999.2
20260506014623 83 201 2.0 0.0 0.00 0.00 0.00 81 999.0
20260506014542 83 178 2.0 0.0 0.00 0.00 0.00 81 999.0
20260506014504 83 221 2.0 0.0 0.00 0.00 0.00 81 999.0
20260506014407 83 209 2.0 0.0 0.00 0.00 0.00 81 999.0
20260506014238 83 251 2.0 0.0 0.00 0.00 0.00 81 999.0
20260506014132 83 206 2.0 0.0 0.00 0.00 0.00 81 999.0
20260506014036 83 202 2.0 0.0 0.00 0.00 0.00 81 999.0
20260506013935 83 96 3.0 0.0 0.00 0.00 0.00 81 999.0
20260506013835 83 221 3.0 0.0 0.00 0.00 0.00 81 999.0
20260506013727 83 64 3.0 0.0 0.00 0.00 0.00 81 999.0
20260506013649 83 159 3.0 0.0 0.00 0.00 0.00 81 999.0
20260506013552 83 231 3.0 0.0 0.00 0.00 0.00 81 999.0
20260506013442 83 221 2.0 0.0 0.00 0.00 0.00 81 999.0
20260506013349 83 167 2.0 0.0 0.00 0.00 0.00 81 999.0
20260506013249 83 199 2.0 0.0 0.00 0.00 0.00 81 999.0
20260506013120 83 175 2.0 0.0 0.00 0.00 0.00 81 998.8
20260506013033 83 202 2.0 0.0 0.00 0.00 0.00 81 998.8
20260506012937 83 169 2.0 0.0 0.00 0.00 0.00 81 998.8
20260506012852 83 164 2.0 0.0 0.00 0.00 0.00 80 998.8
20260506012732 83 196 2.0 0.0 0.00 0.00 0.00 81 998.8
20260506012622 83 226 2.0 0.0 0.00 0.00 0.00 80 998.8
20260506012525 83 208 2.0 0.0 0.00 0.00 0.00 80 998.8
20260506012441 83 155 2.0 0.0 0.00 0.00 0.00 80 998.8
20260506012343 83 300 2.0 0.0 0.00 0.00 0.00 80 998.8
20260506012221 83 197 2.0 0.0 0.00 0.00 0.00 80 998.8
20260506012133 83 189 2.0 0.0 0.00 0.00 0.00 80 998.8
20260506012035 83 115 2.0 0.0 0.00 0.00 0.00 80 998.8
20260506011947 83 179 2.0 0.0 0.00 0.00 0.00 80 998.8
20260506011848 83 207 2.0 0.0 0.00 0.00 0.00 80 998.8
20260506011750 83 197 2.0 0.0 0.00 0.00 0.00 80 998.8
20260506011624 83 227 2.0 0.0 0.00 0.00 0.00 80 998.5
20260506011526 84 138 2.0 0.0 0.00 0.00 0.00 80 998.6
20260506011422 84 116 2.0 0.0 0.00 0.00 0.00 80 998.6
20260506011320 84 161 2.0 0.0 0.00 0.00 0.00 80 998.6
20260506011248 84 151 2.0 0.0 0.00 0.00 0.00 80 998.6
20260506011148 84 254 2.0 0.0 0.00 0.00 0.00 80 998.6
20260506011020 84 340 3.0 0.0 0.00 0.00 0.00 80 998.6
20260506010934 84 238 3.0 0.0 0.00 0.00 0.00 80 998.6
20260506010835 84 262 3.0 0.0 0.00 0.00 0.00 80 998.6
20260506010726 84 231 2.0 0.0 0.00 0.00 0.00 80 998.6
20260506010626 84 173 2.0 0.0 0.00 0.00 0.00 80 998.6
20260506010525 84 192 2.0 0.0 0.00 0.00 0.00 79 998.6
20260506010446 84 205 2.0 0.0 0.00 0.00 0.00 79 998.6
20260506010340 84 114 2.0 0.0 0.00 0.00 0.00 79 998.6
20260506010302 84 221 2.0 0.0 0.00 0.00 0.00 79 998.6
20260506010136 84 331 2.0 0.0 0.00 0.00 0.00 79 998.6
20260506010038 84 180 2.0 0.0 0.00 0.00 0.00 79 998.4
20260506005932 85 184 2.0 0.0 0.00 0.00 0.00 79 998.4
20260506005824 85 190 2.0 0.0 0.00 0.00 0.00 79 998.4
20260506005732 85 234 2.0 0.0 0.00 0.00 0.00 79 998.4
20260506005624 85 251 2.0 0.0 0.00 0.00 0.00 78 998.4
20260506005546 85 211 2.0 0.0 0.00 0.00 0.00 78 998.4
20260506005441 85 198 2.0 0.0 0.00 0.00 0.00 78 998.4
20260506005404 85 214 2.0 0.0 0.00 0.00 0.00 78 998.4
20260506005240 85 140 2.0 0.0 0.00 0.00 0.00 78 998.4
20260506005139 85 152 2.0 0.0 0.00 0.00 0.00 78 998.4
20260506005033 85 168 2.0 0.0 0.00 0.00 0.00 78 998.4
20260506004930 85 190 3.0 0.0 0.00 0.00 0.00 78 998.4
20260506004831 85 107 3.0 0.0 0.00 0.00 0.00 78 998.4
20260506004734 85 182 3.0 0.0 0.00 0.00 0.00 78 998.4
20260506004624 85 153 3.0 0.0 0.00 0.00 0.00 78 998.2
20260506004545 85 177 3.0 0.0 0.00 0.00 0.00 78 998.2
20260506004437 85 233 3.0 0.0 0.00 0.00 0.00 78 998.2
20260506004338 85 163 3.0 0.0 0.00 0.00 0.00 77 998.2
20260506004236 86 215 3.0 0.0 0.00 0.00 0.00 77 998.2
20260506004204 86 102 3.0 0.0 0.00 0.00 0.00 77 998.2
20260506004036 86 148 2.0 0.0 0.00 0.00 0.00 77 998.2
20260506003928 86 170 2.0 0.0 0.00 0.00 0.00 77 998.2
20260506003829 86 154 2.0 0.0 0.00 0.00 0.00 76 998.2
20260506003742 86 215 2.0 0.0 0.00 0.00 0.00 76 998.2
20260506003643 86 140 2.0 0.0 0.00 0.00 0.00 76 998.2
20260506003536 86 178 2.0 0.0 0.00 0.00 0.00 76 998.2
20260506003435 86 222 2.0 0.0 0.00 0.00 0.00 76 998.2
20260506003336 86 159 2.0 0.0 0.00 0.00 0.00 76 998.2
20260506003228 86 244 2.0 0.0 0.00 0.00 0.00 76 998.2
20260506003149 87 197 2.0 0.0 0.00 0.00 0.00 76 998.0
20260506003040 87 200 2.0 0.0 0.00 0.00 0.00 76 998.0
20260506002918 87 219 2.0 0.0 0.00 0.00 0.00 76 998.0
20260506002837 87 234 2.0 0.0 0.00 0.00 0.00 76 998.0
20260506002739 87 199 3.0 0.0 0.00 0.00 0.00 75 998.0
20260506002634 87 130 3.0 0.0 0.00 0.00 0.00 75 998.0
20260506002529 87 190 2.0 0.0 0.00 0.00 0.00 75 998.0
20260506002430 87 187 2.0 0.0 0.00 0.00 0.00 75 998.0
20260506002322 87 330 3.0 0.0 0.00 0.00 0.00 75 998.0
20260506002247 87 313 3.0 0.0 0.00 0.00 0.00 75 998.0
20260506002122 87 228 3.0 0.0 0.00 0.00 0.00 75 998.0
20260506002034 87 205 3.0 0.0 0.00 0.00 0.00 75 998.0
20260506001939 87 220 2.0 0.0 0.00 0.00 0.00 75 998.0
20260506001831 87 175 2.0 0.0 0.00 0.00 0.00 75 998.0
20260506001753 87 117 2.0 0.0 0.00 0.00 0.00 75 998.0
20260506001623 87 206 1.0 0.0 0.00 0.00 0.00 74 997.8
20260506001537 87 197 1.0 0.0 0.00 0.00 0.00 74 997.8
20260506001436 87 117 2.0 0.0 0.00 0.00 0.00 74 997.8
20260506001327 87 224 2.0 0.0 0.00 0.00 0.00 74 997.8
20260506001232 88 78 2.0 0.0 0.00 0.00 0.00 74 997.8
20260506001127 88 136 2.0 0.0 0.00 0.00 0.00 74 997.8
20260506001021 88 164 2.0 0.0 0.00 0.00 0.00 74 997.8
20260506000945 88 158 2.0 0.0 0.00 0.00 0.00 74 997.8
20260506000840 88 123 2.0 0.0 0.00 0.00 0.00 73 997.8
20260506000800 88 157 2.0 0.0 0.00 0.00 0.00 73 997.8
20260506000633 88 17 2.0 0.0 0.00 0.00 0.00 73 997.8
20260506000541 88 124 2.0 0.0 0.00 0.00 0.00 73 997.8
20260506000435 88 235 2.0 0.0 0.00 0.00 0.00 73 997.8
20260506000327 88 171 2.0 0.0 0.00 0.00 0.00 73 997.8
20260506000248 88 140 2.0 0.0 0.00 0.00 0.00 73 997.8
20260506000131 88 259 2.0 0.0 0.00 0.00 0.00 73 997.8
20260506000025 88 200 2.0 0.0 0.00 0.00 0.00 73 997.7
20260505235919 88 198 2.0 0.0 0.00 0.00 0.00 73 997.7
20260505235827 88 101 2.0 0.0 0.00 0.00 0.00 73 997.7
20260505235723 88 261 2.0 0.0 0.00 0.00 0.00 72 997.7
20260505235644 88 275 2.0 0.0 0.00 0.00 0.00 72 997.7
20260505235559 89 162 2.0 0.0 0.00 0.00 0.00 72 997.7
20260505235440 89 152 2.0 0.0 0.00 0.00 0.00 72 997.8
20260505235332 89 212 2.0 0.0 0.00 0.00 0.00 72 997.8
20260505235225 89 178 2.0 0.0 0.00 0.00 0.00 72 997.8
20260505235124 89 109 2.0 0.0 0.00 0.00 0.00 72 997.8
20260505235038 89 115 2.0 0.0 0.00 0.00 0.00 72 997.8
20260505234944 89 105 2.0 0.0 0.00 0.00 0.00 72 997.8
20260505234839 89 183 2.0 0.0 0.00 0.00 0.00 72 997.8
20260505234729 89 173 3.0 0.0 0.00 0.00 0.00 72 997.8
20260505234629 89 167 3.0 0.0 0.00 0.00 0.00 72 997.7
20260505234521 89 187 3.0 0.0 0.00 0.00 0.00 71 997.7
20260505234425 89 175 3.0 0.0 0.00 0.00 0.00 71 997.7
20260505234326 90 236 3.0 0.0 0.00 0.00 0.00 71 997.7
20260505234223 90 168 3.0 0.0 0.00 0.00 0.00 71 997.7
20260505234124 90 165 2.0 0.0 0.00 0.00 0.00 71 997.7
20260505234041 90 109 2.0 0.0 0.00 0.00 0.00 71 997.7
20260505233941 90 167 2.0 0.0 0.00 0.00 0.00 71 997.7
20260505233833 90 105 2.0 0.0 0.00 0.00 0.00 71 997.7
20260505233725 90 224 2.0 0.0 0.00 0.00 0.00 71 997.7
20260505233624 90 207 2.0 0.0 0.00 0.00 0.00 71 997.7
20260505233522 90 199 2.0 0.0 0.00 0.00 0.00 71 997.7
20260505233427 90 153 2.0 0.0 0.00 0.00 0.00 71 997.7
20260505233321 90 207 2.0 0.0 0.00 0.00 0.00 72 997.7
20260505233248 90 230 2.0 0.0 0.00 0.00 0.00 72 997.7
20260505233120 90 142 2.0 0.0 0.00 0.00 0.00 71 997.7
20260505233032 90 168 2.0 0.0 0.00 0.00 0.00 71 997.7
20260505232937 90 184 2.0 0.0 0.00 0.00 0.00 71 997.7
20260505232848 90 261 3.0 0.0 0.00 0.00 0.00 71 997.7
20260505232737 90 192 3.0 0.0 0.00 0.00 0.00 71 997.7
20260505232630 90 187 3.0 0.0 0.00 0.00 0.00 70 997.7
20260505232524 90 237 3.0 0.0 0.00 0.00 0.00 70 997.7
20260505232432 90 221 3.0 0.0 0.00 0.00 0.00 70 997.7
20260505232344 90 186 3.0 0.0 0.00 0.00 0.00 70 997.7
20260505232224 90 198 3.0 0.0 0.00 0.00 0.00 70 997.7
20260505232136 90 22 3.0 0.0 0.00 0.00 0.00 70 997.7
20260505232040 90 92 3.0 0.0 0.00 0.00 0.00 71 997.7
20260505232006 90 163 4.0 0.0 0.00 0.00 0.00 70 997.7
20260505231821 90 184 4.0 0.0 0.00 0.00 0.00 70 997.7
20260505231732 90 159 4.0 0.0 0.00 0.00 0.00 70 997.7
20260505231655 90 212 4.0 0.0 0.00 0.00 0.00 71 997.7
20260505231528 90 204 4.0 0.0 0.00 0.00 0.00 71 997.6
20260505231435 90 140 4.0 0.0 0.00 0.00 0.00 70 997.6
20260505231332 90 205 4.0 0.0 0.00 0.00 0.00 70 997.6
20260505231226 91 332 4.0 0.0 0.00 0.00 0.00 70 997.6
20260505231131 91 219 4.0 0.0 0.00 0.00 0.00 70 997.6
20260505231027 91 217 3.0 0.0 0.00 0.00 0.00 70 997.6
20260505230948 91 246 4.0 0.0 0.00 0.00 0.00 70 997.6
20260505230822 91 173 3.0 0.0 0.00 0.00 0.00 70 997.6
20260505230744 91 166 3.0 0.0 0.00 0.00 0.00 70 997.6
20260505230635 91 156 3.0 0.0 0.00 0.00 0.00 70 997.6
20260505230539 91 194 3.0 0.0 0.00 0.00 0.00 70 997.6
20260505230439 91 169 3.0 0.0 0.00 0.00 0.00 70 997.6
20260505230400 91 200 3.0 0.0 0.00 0.00 0.00 69 997.6
20260505230254 91 202 3.0 0.0 0.00 0.00 0.00 70 997.6
20260505230133 91 161 2.0 0.0 0.00 0.00 0.00 70 997.6
20260505230028 91 192 2.0 0.0 0.00 0.00 0.00 70 997.7
20260505225947 91 205 2.0 0.0 0.00 0.00 0.00 70 997.7
20260505225820 91 168 2.0 0.0 0.00 0.00 0.00 70 997.7
20260505225745 91 212 2.0 0.0 0.00 0.00 0.00 70 997.7
20260505225621 91 161 2.0 0.0 0.00 0.00 0.00 69 997.7
20260505225534 91 105 2.0 0.0 0.00 0.00 0.00 69 997.7
20260505225458 91 85 2.0 0.0 0.00 0.00 0.00 69 997.7
20260505225405 91 155 2.0 0.0 0.00 0.00 0.00 69 997.7
20260505225235 91 188 2.0 0.0 0.00 0.00 0.00 69 997.7
20260505225138 91 88 3.0 0.0 0.00 0.00 0.00 69 997.7
20260505225028 91 194 3.0 0.0 0.00 0.00 0.00 69 997.7
20260505224919 91 108 3.0 0.0 0.00 0.00 0.00 69 997.7
20260505224822 91 235 3.0 0.0 0.00 0.00 0.00 69 997.7
20260505224747 91 217 3.0 0.0 0.00 0.00 0.00 69 997.7
20260505224617 91 193 3.0 0.0 0.00 0.00 0.00 69 997.7
20260505224532 92 93 3.0 0.0 0.00 0.00 0.00 68 997.7
20260505224435 92 46 3.0 0.0 0.00 0.00 0.00 68 997.7
20260505224327 92 123 3.0 0.0 0.00 0.00 0.00 68 997.7
20260505224248 92 196 3.0 0.0 0.00 0.00 0.00 68 997.7
20260505224141 92 213 2.0 0.0 0.00 0.00 0.00 69 997.7
20260505224041 92 167 3.0 0.0 0.00 0.00 0.00 68 997.7
20260505223942 92 150 3.0 0.0 0.00 0.00 0.00 68 997.7
20260505223835 92 194 3.0 0.0 0.00 0.00 0.00 68 997.7
20260505223756 92 56 3.0 0.0 0.00 0.00 0.00 68 997.7
20260505223626 92 244 3.0 0.0 0.00 0.00 0.00 68 997.7
20260505223552 92 238 3.0 0.0 0.00 0.00 0.00 68 997.7
20260505223507 92 225 3.0 0.0 0.00 0.00 0.00 68 997.7
20260505223405 92 162 3.0 0.0 0.00 0.00 0.00 68 997.7
20260505223247 92 123 3.0 0.0 0.00 0.00 0.00 68 997.7
20260505223123 92 229 3.0 0.0 0.00 0.00 0.00 68 997.7
20260505223036 92 272 3.0 0.0 0.00 0.00 0.00 68 997.7
20260505222958 92 209 3.0 0.0 0.00 0.00 0.00 68 997.7
20260505222859 92 178 2.0 0.0 0.00 0.00 0.00 68 997.7
20260505222729 92 180 3.0 0.0 0.00 0.00 0.00 68 997.7
20260505222630 92 113 3.0 0.0 0.00 0.00 0.00 68 997.7
20260505222522 92 92 3.0 0.0 0.00 0.00 0.00 67 997.7
20260505222427 92 151 3.0 0.0 0.00 0.00 0.00 67 997.7
20260505222321 92 249 4.0 0.0 0.00 0.00 0.00 67 997.7
20260505222249 92 259 4.0 0.0 0.00 0.00 0.00 67 997.7
20260505222120 92 131 4.0 0.0 0.00 0.00 0.00 67 997.7
20260505222036 92 178 4.0 0.0 0.00 0.00 0.00 68 997.7
20260505221938 92 200 4.0 0.0 0.00 0.00 0.00 68 997.7
20260505221830 92 188 4.0 0.0 0.00 0.00 0.00 68 997.7
20260505221724 92 160 4.0 0.0 0.00 0.00 0.00 67 997.7
20260505221625 92 247 3.0 0.0 0.00 0.00 0.00 67 997.8
20260505221524 93 242 3.0 0.0 0.00 0.00 0.00 67 997.8
20260505221425 93 191 3.0 0.0 0.00 0.00 0.00 67 997.8
20260505221340 93 252 3.0 0.0 0.00 0.00 0.00 67 997.8
20260505221241 93 186 3.0 0.0 0.00 0.00 0.00 67 997.8
20260505221135 93 188 3.0 0.0 0.00 0.00 0.00 68 997.8
20260505221033 93 252 3.0 0.0 0.00 0.00 0.00 67 997.8
20260505220959 93 194 4.0 0.0 0.00 0.00 0.00 67 997.8
20260505220859 93 183 3.0 0.0 0.00 0.00 0.00 67 997.8
20260505220736 92 118 4.0 0.0 0.00 0.00 0.00 67 997.8
20260505220631 93 59 3.0 0.0 0.00 0.00 0.00 67 997.8
20260505220531 93 216 3.0 0.0 0.00 0.00 0.00 67 997.8
20260505220425 93 33 3.0 0.0 0.00 0.00 0.00 67 997.8
20260505220349 93 211 3.0 0.0 0.00 0.00 0.00 67 997.8
20260505220311 93 171 3.0 0.0 0.00 0.00 0.00 67 997.8
20260505220123 93 183 3.0 0.0 0.00 0.00 0.00 67 997.8
20260505220035 93 158 3.0 0.0 0.00 0.00 0.00 66 997.8
20260505215939 93 209 3.0 0.0 0.00 0.00 0.00 66 997.8
20260505215834 93 209 3.0 0.0 0.00 0.00 0.00 66 997.8
20260505215726 93 226 3.0 0.0 0.00 0.00 0.00 66 997.8
20260505215627 93 182 3.0 0.0 0.00 0.00 0.00 66 997.8
20260505215540 93 167 3.0 0.0 0.00 0.00 0.00 66 997.8
20260505215442 93 224 3.0 0.0 0.00 0.00 0.00 66 997.8
20260505215331 93 284 3.0 0.0 0.00 0.00 0.00 66 997.8
20260505215231 93 70 3.0 0.0 0.00 0.00 0.00 66 997.8
20260505215125 93 238 3.0 0.0 0.00 0.00 0.00 66 997.8
20260505215048 93 252 3.0 0.0 0.00 0.00 0.00 66 997.8
20260505214921 93 252 3.0 0.0 0.00 0.00 0.00 66 997.8
20260505214834 93 174 3.0 0.0 0.00 0.00 0.00 66 997.8
20260505214733 93 201 3.0 0.0 0.00 0.00 0.00 66 997.8
20260505214625 93 78 3.0 0.0 0.00 0.00 0.00 66 997.8
20260505214523 93 150 3.0 0.0 0.00 0.00 0.00 66 997.8
20260505214423 93 186 3.0 0.0 0.00 0.00 0.00 66 997.8
20260505214340 93 101 3.0 0.0 0.00 0.00 0.00 66 997.8
20260505214240 93 156 3.0 0.0 0.00 0.00 0.00 66 997.8
20260505214133 93 69 3.0 0.0 0.00 0.00 0.00 66 997.8
20260505214034 93 112 3.0 0.0 0.00 0.00 0.00 66 997.8
20260505213946 94 80 2.0 0.0 0.00 0.00 0.00 66 997.9
20260505213909 94 84 2.0 0.0 0.00 0.00 0.00 66 997.9
20260505213808 94 339 3.0 0.0 0.00 0.00 0.00 66 997.9
20260505213142 94 112 2.0 0.0 0.00 0.00 0.00 66 997.9
20260505213042 94 101 2.0 0.0 0.00 0.00 0.00 66 998.2
20260505212943 94 211 3.0 0.0 0.00 0.00 0.00 66 998.2
20260505212833 94 226 3.0 0.0 0.00 0.00 0.00 65 998.2
20260505212741 94 99 2.0 0.0 0.00 0.00 0.00 66 998.2
20260505212632 94 106 2.0 0.0 0.00 0.00 0.00 65 998.2
20260505212526 94 263 3.0 0.0 0.00 0.00 0.00 65 998.2
20260505212452 94 129 3.0 0.0 0.00 0.00 0.00 65 998.2
20260505212351 94 209 3.0 0.0 0.00 0.00 0.00 65 998.2
20260505212247 94 300 3.0 0.0 0.00 0.00 0.00 65 998.2
20260505212152 94 252 3.0 0.0 0.00 0.00 0.00 65 998.2
20260505212045 94 79 2.0 0.0 0.00 0.00 0.00 65 998.2
20260505211945 94 69 2.0 0.0 0.00 0.00 0.00 65 998.2
20260505211837 94 22 2.0 0.0 0.00 0.00 0.00 64 998.2
20260505211731 94 150 2.0 0.0 0.00 0.00 0.00 64 998.2
20260505211655 94 188 2.0 0.0 0.00 0.00 0.00 65 998.2
20260505211527 94 193 2.0 0.0 0.00 0.00 0.00 65 998.2
20260505211431 95 211 2.0 0.0 0.00 0.00 0.00 64 998.2
20260505211325 95 104 2.0 0.0 0.00 0.00 0.00 64 998.2
20260505211246 95 186 2.0 0.0 0.00 0.00 0.00 64 998.2
20260505211137 95 184 2.0 0.0 0.00 0.00 0.00 65 998.2
20260505211037 95 67 2.0 0.0 0.00 0.00 0.00 64 998.2
20260505210937 95 61 2.0 0.0 0.00 0.00 0.00 64 998.2
20260505210901 95 111 2.0 0.0 0.00 0.00 0.00 64 998.2
20260505210754 95 47 2.0 0.0 0.00 0.00 0.00 64 998.2
20260505210634 95 255 2.0 0.0 0.00 0.00 0.00 63 998.2
20260505210532 95 229 2.0 0.0 0.00 0.00 0.00 63 998.2
20260505210433 95 208 2.0 0.0 0.00 0.00 0.00 64 998.2
20260505210327 95 188 2.0 0.0 0.00 0.00 0.00 64 998.2
20260505210218 95 14 2.0 0.0 0.00 0.00 0.00 63 998.2
20260505210145 95 29 2.0 0.0 0.00 0.00 0.00 63 998.2
20260505210040 95 167 2.0 0.0 0.00 0.00 0.00 63 998.3
20260505205942 95 225 2.0 0.0 0.00 0.00 0.00 63 998.3
20260505205820 95 200 1.0 0.0 0.00 0.00 0.00 63 998.3
20260505205736 95 68 1.0 0.0 0.00 0.00 0.00 62 998.3
20260505205637 95 134 2.0 0.0 0.00 0.00 0.00 63 998.3
20260505205531 95 121 2.0 0.0 0.00 0.00 0.00 62 998.3
20260505205435 96 179 2.0 0.0 0.00 0.00 0.00 62 998.3
20260505205326 96 175 2.0 0.0 0.00 0.00 0.00 63 998.3
20260505205220 96 156 2.0 0.0 0.00 0.00 0.00 62 998.3
20260505205131 96 144 2.0 0.0 0.00 0.00 0.00 62 998.3
20260505205026 96 114 2.0 0.0 0.00 0.00 0.00 62 998.3
20260505204950 96 176 2.0 0.0 0.00 0.00 0.00 62 998.3